Wetterdaten: Samstag, 08.12.2018
Datum Zeit Temp. Aussen Temp. o. S. +5cm Feuchte Auss Luftdruck Regen Sonnenschein Regendauer Solar Windben Empfang
08.12.2018 00:00 6,0 C 5,0 C 4,4 C 93 % 1003,6 hPa 0,0 l/m 0 min 0 min 0 W/m 16,1 km/h (3 Bft) 95,74 %
08.12.2018 00:02 6,0 C 5,0 C 4,4 C 93 % 1003,5 hPa 0,0 l/m 0 min 0 min 0 W/m 16,1 km/h (3 Bft) 97,14 %
08.12.2018 00:04 6,0 C 5,0 C 4,4 C 93 % 1003,5 hPa 0,0 l/m 0 min 0 min 0 W/m 25,7 km/h (4 Bft) 97,87 %
08.12.2018 00:07 6,0 C 5,0 C 4,4 C 93 % 1003,5 hPa 0,0 l/m 0 min 0 min 0 W/m 22,5 km/h (4 Bft) 95,12 %
08.12.2018 00:08 6,0 C 5,0 C 4,4 C 93 % 1003,5 hPa 0,0 l/m 0 min 0 min 0 W/m 25,7 km/h (4 Bft) 100,00 %
08.12.2018 00:10 6,0 C 5,0 C 4,4 C 93 % 1003,5 hPa 0,0 l/m 0 min 0 min 0 W/m 16,1 km/h (3 Bft) 95,65 %
08.12.2018 00:12 6,0 C 5,0 C 4,4 C 93 % 1003,5 hPa 0,0 l/m 0 min 0 min 0 W/m 16,1 km/h (3 Bft) 95,74 %
08.12.2018 00:14 6,0 C 5,0 C 4,4 C 93 % 1003,4 hPa 0,0 l/m 0 min 0 min 0 W/m 19,3 km/h (3 Bft) 93,62 %
08.12.2018 00:16 6,0 C 5,0 C 4,4 C 93 % 1003,5 hPa 0,0 l/m 0 min 0 min 0 W/m 19,3 km/h (3 Bft) 95,74 %
08.12.2018 00:18 6,0 C 5,0 C 4,4 C 93 % 1003,5 hPa 0,0 l/m 0 min 0 min 0 W/m 19,3 km/h (3 Bft) 95,74 %
08.12.2018 00:20 6,0 C 5,0 C 4,4 C 93 % 1003,7 hPa 0,0 l/m 0 min 0 min 0 W/m 22,5 km/h (4 Bft) 95,74 %
08.12.2018 00:22 6,0 C 5,0 C 4,4 C 93 % 1003,7 hPa 0,0 l/m 0 min 0 min 0 W/m 16,1 km/h (3 Bft) 97,83 %
08.12.2018 00:24 6,0 C 5,0 C 4,4 C 93 % 1003,7 hPa 0,0 l/m 0 min 0 min 0 W/m 22,5 km/h (4 Bft) 95,74 %
08.12.2018 00:26 6,1 C 5,0 C 4,4 C 92 % 1003,7 hPa 0,0 l/m 0 min 0 min 0 W/m 25,7 km/h (4 Bft) 97,87 %
08.12.2018 00:28 6,1 C 5,0 C 4,4 C 92 % 1003,6 hPa 0,0 l/m 0 min 0 min 0 W/m 19,3 km/h (3 Bft) 97,87 %
08.12.2018 00:30 6,1 C 5,0 C 4,4 C 92 % 1003,7 hPa 0,0 l/m 0 min 0 min 0 W/m 19,3 km/h (3 Bft) 95,74 %
08.12.2018 00:32 6,0 C 5,0 C 4,4 C 92 % 1003,7 hPa 0,0 l/m 0 min 0 min 0 W/m 22,5 km/h (4 Bft) 91,49 %
08.12.2018 00:34 6,0 C 5,0 C 4,4 C 92 % 1003,7 hPa 0,0 l/m 0 min 0 min 0 W/m 22,5 km/h (4 Bft) 97,83 %
08.12.2018 00:36 6,0 C 5,0 C 4,4 C 92 % 1003,7 hPa 0,0 l/m 0 min 0 min 0 W/m 16,1 km/h (3 Bft) 96,61 %
08.12.2018 00:38 6,0 C 5,0 C 4,4 C 92 % 1003,7 hPa 0,0 l/m 0 min 0 min 0 W/m 19,3 km/h (3 Bft) 97,14 %
08.12.2018 00:40 6,0 C 5,0 C 4,4 C 92 % 1003,7 hPa 0,0 l/m 0 min 0 min 0 W/m 22,5 km/h (4 Bft) 97,87 %
08.12.2018 00:42 6,0 C 5,0 C 4,4 C 92 % 1003,6 hPa 0,0 l/m 0 min 0 min 0 W/m 16,1 km/h (3 Bft) 95,74 %
08.12.2018 00:44 6,0 C 5,0 C 4,4 C 92 % 1003,6 hPa 0,0 l/m 0 min 0 min 0 W/m 16,1 km/h (3 Bft) 97,83 %
08.12.2018 00:46 5,9 C 5,0 C 4,4 C 92 % 1003,6 hPa 0,0 l/m 0 min 0 min 0 W/m 19,3 km/h (3 Bft) 97,87 %
08.12.2018 00:48 5,9 C 5,0 C 4,4 C 92 % 1003,6 hPa 0,0 l/m 0 min 0 min 0 W/m 16,1 km/h (3 Bft) 95,74 %
08.12.2018 00:50 5,9 C 5,0 C 4,4 C 92 % 1003,7 hPa 0,0 l/m 0 min 0 min 0 W/m 19,3 km/h (3 Bft) 95,74 %
08.12.2018 00:52 5,9 C 5,0 C 4,4 C 92 % 1003,7 hPa 0,0 l/m 0 min 0 min 0 W/m 19,3 km/h (3 Bft) 97,87 %
08.12.2018 00:54 5,9 C 5,0 C 4,4 C 91 % 1003,7 hPa 0,0 l/m 0 min 0 min 0 W/m 19,3 km/h (3 Bft) 97,87 %
08.12.2018 00:56 5,9 C 5,0 C 4,4 C 91 % 1003,7 hPa 0,0 l/m 0 min 0 min 0 W/m 29,0 km/h (5 Bft) 97,83 %
08.12.2018 00:58 5,9 C 5,0 C 4,4 C 91 % 1003,7 hPa 0,0 l/m 0 min 0 min 0 W/m 19,3 km/h (3 Bft) 95,74 %
08.12.2018 01:00 5,9 C 5,0 C 4,4 C 91 % 1003,6 hPa 0,0 l/m 0 min 0 min 0 W/m 19,3 km/h (3 Bft) 97,87 %
08.12.2018 01:02 5,9 C 5,0 C 4,4 C 91 % 1003,6 hPa 0,0 l/m 0 min 0 min 0 W/m 16,1 km/h (3 Bft) 95,74 %
08.12.2018 01:04 5,9 C 5,0 C 4,4 C 91 % 1003,7 hPa 0,0 l/m 0 min 0 min 0 W/m 41,8 km/h (6 Bft) 93,62 %
08.12.2018 01:06 5,9 C 5,0 C 4,4 C 91 % 1003,7 hPa 0,0 l/m 0 min 0 min 0 W/m 22,5 km/h (4 Bft) 96,55 %
08.12.2018 01:08 6,0 C 5,0 C 4,4 C 91 % 1003,8 hPa 0,0 l/m 0 min 0 min 0 W/m 19,3 km/h (3 Bft) 97,14 %
08.12.2018 01:10 6,0 C 5,0 C 4,4 C 91 % 1003,7 hPa 0,0 l/m 0 min 0 min 0 W/m 19,3 km/h (3 Bft) 95,74 %
08.12.2018 01:12 6,0 C 5,0 C 4,4 C 91 % 1003,8 hPa 0,0 l/m 0 min 0 min 0 W/m 16,1 km/h (3 Bft) 95,74 %
08.12.2018 01:14 6,0 C 5,0 C 4,4 C 91 % 1003,7 hPa 0,0 l/m 0 min 0 min 0 W/m 19,3 km/h (3 Bft) 95,74 %
08.12.2018 01:16 6,0 C 5,0 C 4,4 C 91 % 1003,7 hPa 0,0 l/m 0 min 0 min 0 W/m 25,7 km/h (4 Bft) 93,62 %
08.12.2018 01:18 6,0 C 5,0 C 4,4 C 91 % 1003,8 hPa 0,0 l/m 0 min 0 min 0 W/m 22,5 km/h (4 Bft) 97,87 %
08.12.2018 01:20 6,0 C 5,0 C 4,4 C 90 % 1004,0 hPa 0,0 l/m 0 min 0 min 0 W/m 19,3 km/h (3 Bft) 97,83 %
08.12.2018 01:22 6,0 C 5,6 C 4,4 C 90 % 1003,8 hPa 0,0 l/m 0 min 0 min 0 W/m 16,1 km/h (3 Bft) 95,74 %
08.12.2018 01:24 6,0 C 5,6 C 4,4 C 90 % 1003,8 hPa 0,0 l/m 0 min 0 min 0 W/m 22,5 km/h (4 Bft) 97,87 %
08.12.2018 01:26 6,1 C 5,6 C 4,4 C 90 % 1003,9 hPa 0,0 l/m 0 min 0 min 0 W/m 16,1 km/h (3 Bft) 95,74 %
08.12.2018 01:28 6,1 C 5,6 C 4,4 C 90 % 1003,9 hPa 0,0 l/m 0 min 0 min 0 W/m 22,5 km/h (4 Bft) 97,87 %
08.12.2018 01:30 6,1 C 5,6 C 4,4 C 91 % 1003,9 hPa 0,0 l/m 0 min 0 min 0 W/m 19,3 km/h (3 Bft) 97,87 %
08.12.2018 01:32 6,1 C 5,6 C 4,4 C 91 % 1003,9 hPa 0,0 l/m 0 min 0 min 0 W/m 25,7 km/h (4 Bft) 97,83 %
08.12.2018 01:34 6,1 C 5,6 C 4,4 C 91 % 1003,9 hPa 0,0 l/m 0 min 0 min 0 W/m 22,5 km/h (4 Bft) 95,74 %
08.12.2018 01:36 6,1 C 5,6 C 4,4 C 91 % 1003,8 hPa 0,0 l/m 0 min 0 min 0 W/m 16,1 km/h (3 Bft) 96,61 %
08.12.2018 01:38 6,2 C 5,6 C 4,4 C 91 % 1003,9 hPa 0,0 l/m 0 min 0 min 0 W/m 22,5 km/h (4 Bft) 94,29 %
08.12.2018 01:40 6,2 C 5,6 C 4,4 C 90 % 1003,9 hPa 0,0 l/m 0 min 0 min 0 W/m 25,7 km/h (4 Bft) 97,87 %
08.12.2018 01:42 6,2 C 5,6 C 4,4 C 90 % 1003,8 hPa 0,0 l/m 0 min 0 min 0 W/m 22,5 km/h (4 Bft) 95,65 %
08.12.2018 01:44 6,2 C 5,6 C 4,4 C 90 % 1003,8 hPa 0,0 l/m 0 min 0 min 0 W/m 19,3 km/h (3 Bft) 97,87 %
08.12.2018 01:46 6,2 C 5,6 C 4,4 C 90 % 1003,8 hPa 0,0 l/m 0 min 0 min 0 W/m 22,5 km/h (4 Bft) 97,87 %
08.12.2018 01:48 6,2 C 5,6 C 4,4 C 90 % 1003,9 hPa 0,0 l/m 0 min 0 min 0 W/m 22,5 km/h (4 Bft) 97,87 %
08.12.2018 01:50 6,2 C 5,6 C 4,4 C 90 % 1003,8 hPa 0,0 l/m 0 min 0 min 0 W/m 25,7 km/h (4 Bft) 95,74 %
08.12.2018 01:52 6,2 C 5,6 C 4,4 C 90 % 1003,9 hPa 0,0 l/m 0 min 0 min 0 W/m 32,2 km/h (5 Bft) 97,87 %
08.12.2018 01:54 6,3 C 6,1 C 4,4 C 90 % 1003,8 hPa 0,0 l/m 0 min 0 min 0 W/m 38,6 km/h (5 Bft) 97,83 %
08.12.2018 01:56 6,3 C 6,1 C 4,4 C 90 % 1003,9 hPa 0,0 l/m 0 min 0 min 0 W/m 32,2 km/h (5 Bft) 100,00 %
08.12.2018 01:58 6,3 C 6,1 C 4,4 C 90 % 1003,9 hPa 0,0 l/m 0 min 0 min 0 W/m 22,5 km/h (4 Bft) 91,49 %
08.12.2018 02:00 6,3 C 6,1 C 4,4 C 90 % 1004,0 hPa 0,0 l/m 0 min 0 min 0 W/m 29,0 km/h (5 Bft) 100,00 %
08.12.2018 02:02 6,3 C 6,1 C 4,4 C 90 % 1004,0 hPa 0,0 l/m 0 min 0 min 0 W/m 25,7 km/h (4 Bft) 97,87 %
08.12.2018 02:04 6,4 C 6,1 C 4,4 C 90 % 1003,9 hPa 0,0 l/m 0 min 0 min 0 W/m 19,3 km/h (3 Bft) 97,87 %
08.12.2018 02:06 6,4 C 6,1 C 4,4 C 90 % 1003,9 hPa 0,0 l/m 0 min 0 min 0 W/m 19,3 km/h (3 Bft) 96,55 %
08.12.2018 02:08 6,4 C 6,1 C 4,4 C 90 % 1003,9 hPa 0,0 l/m 0 min 0 min 0 W/m 41,8 km/h (6 Bft) 97,14 %
08.12.2018 02:10 6,4 C 6,1 C 4,4 C 90 % 1004,0 hPa 0,0 l/m 0 min 0 min 0 W/m 54,7 km/h (7 Bft) 97,87 %
08.12.2018 02:12 6,4 C 6,1 C 4,4 C 90 % 1003,8 hPa 0,0 l/m 0 min 0 min 0 W/m 22,5 km/h (4 Bft) 95,74 %
08.12.2018 02:14 6,4 C 5,6 C 4,4 C 90 % 1003,8 hPa 0,0 l/m 0 min 0 min 0 W/m 25,7 km/h (4 Bft) 97,87 %
08.12.2018 02:16 6,4 C 5,6 C 4,4 C 90 % 1003,7 hPa 0,0 l/m 0 min 0 min 0 W/m 22,5 km/h (4 Bft) 97,87 %
08.12.2018 02:18 6,4 C 5,6 C 4,4 C 90 % 1003,7 hPa 0,0 l/m 0 min 0 min 0 W/m 25,7 km/h (4 Bft) 97,83 %
08.12.2018 02:20 6,3 C 5,6 C 4,4 C 90 % 1003,9 hPa 0,0 l/m 0 min 0 min 0 W/m 22,5 km/h (4 Bft) 97,87 %
08.12.2018 02:22 6,3 C 5,6 C 4,4 C 90 % 1003,9 hPa 0,0 l/m 0 min 0 min 0 W/m 32,2 km/h (5 Bft) 97,87 %
08.12.2018 02:24 6,3 C 5,6 C 4,4 C 90 % 1004,0 hPa 0,0 l/m 0 min 0 min 0 W/m 19,3 km/h (3 Bft) 97,87 %
08.12.2018 02:26 6,3 C 5,6 C 4,4 C 90 % 1003,9 hPa 0,0 l/m 0 min 0 min 0 W/m 22,5 km/h (4 Bft) 97,87 %
08.12.2018 02:28 6,3 C 5,6 C 4,4 C 90 % 1004,0 hPa 0,0 l/m 0 min 0 min 0 W/m 16,1 km/h (3 Bft) 97,87 %
08.12.2018 02:30 6,3 C 5,6 C 4,4 C 90 % 1004,0 hPa 0,0 l/m 0 min 0 min 0 W/m 19,3 km/h (3 Bft) 97,83 %
08.12.2018 02:32 6,3 C 5,6 C 4,4 C 90 % 1004,0 hPa 0,0 l/m 0 min 0 min 0 W/m 32,2 km/h (5 Bft) 97,87 %
08.12.2018 02:34 6,3 C 5,6 C 4,4 C 89 % 1004,1 hPa 0,0 l/m 0 min 0 min 0 W/m 29,0 km/h (5 Bft) 97,87 %
08.12.2018 02:36 6,3 C 5,6 C 4,4 C 89 % 1004,0 hPa 0,0 l/m 0 min 0 min 0 W/m 19,3 km/h (3 Bft) 96,61 %
08.12.2018 02:38 6,3 C 5,6 C 4,4 C 90 % 1004,1 hPa 0,0 l/m 0 min 0 min 0 W/m 22,5 km/h (4 Bft) 100,00 %
08.12.2018 02:40 6,3 C 5,6 C 4,4 C 90 % 1004,2 hPa 0,0 l/m 0 min 0 min 0 W/m 19,3 km/h (3 Bft) 97,87 %
08.12.2018 02:42 6,3 C 5,6 C 4,4 C 90 % 1004,0 hPa 0,0 l/m 0 min 0 min 0 W/m 16,1 km/h (3 Bft) 97,83 %
08.12.2018 02:44 6,3 C 5,6 C 4,4 C 90 % 1004,0 hPa 0,0 l/m 0 min 0 min 0 W/m 29,0 km/h (5 Bft) 100,00 %
08.12.2018 02:46 6,2 C 5,6 C 4,4 C 90 % 1004,1 hPa 0,0 l/m 0 min 0 min 0 W/m 22,5 km/h (4 Bft) 100,00 %
08.12.2018 02:48 6,2 C 5,6 C 4,4 C 90 % 1003,9 hPa 0,0 l/m 0 min 0 min 0 W/m 19,3 km/h (3 Bft) 100,00 %
08.12.2018 02:50 6,2 C 5,6 C 4,4 C 90 % 1004,0 hPa 0,0 l/m 0 min 0 min 0 W/m 22,5 km/h (4 Bft) 97,87 %
08.12.2018 02:52 6,2 C 5,6 C 4,4 C 90 % 1004,0 hPa 0,0 l/m 0 min 0 min 0 W/m 22,5 km/h (4 Bft) 100,00 %
08.12.2018 02:54 6,2 C 5,6 C 4,4 C 90 % 1004,0 hPa 0,0 l/m 0 min 0 min 0 W/m 16,1 km/h (3 Bft) 100,00 %
08.12.2018 02:56 6,2 C 5,6 C 4,4 C 90 % 1004,0 hPa 0,0 l/m 0 min 0 min 0 W/m 25,7 km/h (4 Bft) 100,00 %
08.12.2018 02:58 6,2 C 5,6 C 4,4 C 90 % 1003,8 hPa 0,0 l/m 0 min 0 min 0 W/m 19,3 km/h (3 Bft) 100,00 %
08.12.2018 03:00 6,2 C 5,6 C 4,4 C 90 % 1003,8 hPa 0,0 l/m 0 min 0 min 0 W/m 25,7 km/h (4 Bft) 100,00 %
08.12.2018 03:02 6,2 C 5,6 C 4,4 C 90 % 1003,8 hPa 0,0 l/m 0 min 0 min 0 W/m 29,0 km/h (5 Bft) 100,00 %
08.12.2018 03:04 6,1 C 5,6 C 4,4 C 90 % 1003,9 hPa 0,0 l/m 0 min 0 min 0 W/m 35,4 km/h (5 Bft) 100,00 %
08.12.2018 03:06 6,1 C 5,6 C 4,4 C 90 % 1003,9 hPa 0,0 l/m 0 min 0 min 0 W/m 29,0 km/h (5 Bft) 100,00 %
08.12.2018 03:08 6,1 C 5,6 C 4,4 C 90 % 1003,8 hPa 0,0 l/m 0 min 0 min 0 W/m 25,7 km/h (4 Bft) 100,00 %
08.12.2018 03:10 6,1 C 5,6 C 4,4 C 90 % 1003,7 hPa 0,0 l/m 0 min 0 min 0 W/m 16,1 km/h (3 Bft) 100,00 %
08.12.2018 03:12 6,1 C 5,6 C 4,4 C 90 % 1003,8 hPa 0,0 l/m 0 min 0 min 0 W/m 25,7 km/h (4 Bft) 100,00 %
08.12.2018 03:14 6,1 C 5,6 C 4,4 C 90 % 1003,8 hPa 0,0 l/m 0 min 0 min 0 W/m 22,5 km/h (4 Bft) 100,00 %
08.12.2018 03:16 6,1 C 5,6 C 4,4 C 90 % 1003,8 hPa 0,0 l/m 0 min 0 min 0 W/m 22,5 km/h (4 Bft) 97,83 %
08.12.2018 03:18 6,1 C 5,6 C 4,4 C 90 % 1003,9 hPa 0,0 l/m 0 min 0 min 0 W/m 12,9 km/h (3 Bft) 100,00 %
08.12.2018 03:20 6,1 C 5,6 C 4,4 C 90 % 1003,8 hPa 0,0 l/m 0 min 0 min 0 W/m 12,9 km/h (3 Bft) 100,00 %
08.12.2018 03:22 6,1 C 5,6 C 4,4 C 90 % 1003,7 hPa 0,0 l/m 0 min 0 min 0 W/m 19,3 km/h (3 Bft) 100,00 %
08.12.2018 03:24 6,1 C 5,6 C 4,4 C 90 % 1003,9 hPa 0,0 l/m 0 min 0 min 0 W/m 29,0 km/h (5 Bft) 100,00 %
08.12.2018 03:26 6,1 C 5,6 C 4,4 C 90 % 1003,8 hPa 0,0 l/m 0 min 0 min 0 W/m 25,7 km/h (4 Bft) 100,00 %
08.12.2018 03:28 6,1 C 5,6 C 4,4 C 90 % 1003,7 hPa 0,0 l/m 0 min 0 min 0 W/m 16,1 km/h (3 Bft) 100,00 %
08.12.2018 03:30 6,1 C 5,6 C 4,4 C 90 % 1003,7 hPa 0,0 l/m 0 min 0 min 0 W/m 19,3 km/h (3 Bft) 97,87 %
08.12.2018 03:32 6,1 C 5,6 C 4,4 C 90 % 1003,6 hPa 0,0 l/m 0 min 0 min 0 W/m 16,1 km/h (3 Bft) 97,87 %
08.12.2018 03:34 6,1 C 5,6 C 4,4 C 90 % 1003,6 hPa 0,0 l/m 0 min 0 min 0 W/m 22,5 km/h (4 Bft) 100,00 %
08.12.2018 03:36 6,1 C 5,6 C 4,4 C 90 % 1003,6 hPa 0,0 l/m 0 min 0 min 0 W/m 35,4 km/h (5 Bft) 100,00 %
08.12.2018 03:38 6,2 C 5,6 C 4,4 C 90 % 1003,6 hPa 0,0 l/m 0 min 0 min 0 W/m 22,5 km/h (4 Bft) 97,22 %
08.12.2018 03:40 6,2 C 5,6 C 4,4 C 90 % 1003,6 hPa 0,0 l/m 0 min 0 min 0 W/m 19,3 km/h (3 Bft) 100,00 %
08.12.2018 03:42 6,2 C 5,6 C 4,4 C 90 % 1003,6 hPa 0,0 l/m 0 min 0 min 0 W/m 35,4 km/h (5 Bft) 100,00 %
08.12.2018 03:44 6,2 C 5,6 C 4,4 C 90 % 1003,5 hPa 0,0 l/m 0 min 0 min 0 W/m 22,5 km/h (4 Bft) 100,00 %
08.12.2018 03:46 6,2 C 5,6 C 4,4 C 90 % 1003,5 hPa 0,0 l/m 0 min 0 min 0 W/m 22,5 km/h (4 Bft) 100,00 %
08.12.2018 03:48 6,2 C 5,6 C 4,4 C 90 % 1003,5 hPa 0,0 l/m 0 min 0 min 0 W/m 19,3 km/h (3 Bft) 97,87 %
08.12.2018 03:50 6,2 C 5,6 C 4,4 C 90 % 1003,5 hPa 0,0 l/m 0 min 0 min 0 W/m 22,5 km/h (4 Bft) 100,00 %
08.12.2018 03:52 6,2 C 5,6 C 4,4 C 90 % 1003,6 hPa 0,0 l/m 0 min 0 min 0 W/m 25,7 km/h (4 Bft) 97,87 %
08.12.2018 03:54 6,2 C 5,6 C 4,4 C 90 % 1003,5 hPa 0,0 l/m 0 min 0 min 0 W/m 19,3 km/h (3 Bft) 100,00 %
08.12.2018 03:56 6,2 C 6,1 C 4,4 C 90 % 1003,7 hPa 0,0 l/m 0 min 0 min 0 W/m 29,0 km/h (5 Bft) 95,74 %
08.12.2018 03:58 6,2 C 5,6 C 4,4 C 90 % 1003,5 hPa 0,0 l/m 0 min 0 min 0 W/m 29,0 km/h (5 Bft) 95,74 %
08.12.2018 04:00 6,3 C 6,1 C 4,4 C 90 % 1003,4 hPa 0,0 l/m 0 min 0 min 0 W/m 48,3 km/h (6 Bft) 97,87 %
08.12.2018 04:02 6,3 C 6,1 C 4,4 C 90 % 1003,4 hPa 0,0 l/m 0 min 0 min 0 W/m 22,5 km/h (4 Bft) 100,00 %
08.12.2018 04:04 6,3 C 5,6 C 4,4 C 90 % 1003,3 hPa 0,0 l/m 0 min 0 min 0 W/m 25,7 km/h (4 Bft) 95,74 %
08.12.2018 04:06 6,3 C 6,1 C 5,0 C 90 % 1003,3 hPa 0,0 l/m 0 min 0 min 0 W/m 29,0 km/h (5 Bft) 98,31 %
08.12.2018 04:08 6,3 C 6,1 C 5,0 C 90 % 1003,4 hPa 0,0 l/m 0 min 0 min 0 W/m 32,2 km/h (5 Bft) 94,29 %
08.12.2018 04:10 6,3 C 6,1 C 5,0 C 90 % 1003,4 hPa 0,0 l/m 0 min 0 min 0 W/m 29,0 km/h (5 Bft) 95,74 %
08.12.2018 04:12 6,3 C 5,6 C 5,0 C 90 % 1003,2 hPa 0,0 l/m 0 min 0 min 0 W/m 19,3 km/h (3 Bft) 95,74 %
08.12.2018 04:14 6,3 C 5,6 C 5,0 C 90 % 1003,2 hPa 0,0 l/m 0 min 0 min 0 W/m 35,4 km/h (5 Bft) 93,62 %
08.12.2018 04:16 6,3 C 5,6 C 5,0 C 90 % 1003,3 hPa 0,0 l/m 0 min 0 min 0 W/m 35,4 km/h (5 Bft) 95,65 %
08.12.2018 04:18 6,3 C 5,6 C 5,0 C 89 % 1003,2 hPa 0,0 l/m 0 min 0 min 0 W/m 35,4 km/h (5 Bft) 95,74 %
08.12.2018 04:20 6,3 C 5,6 C 5,0 C 89 % 1003,1 hPa 0,0 l/m 0 min 0 min 0 W/m 25,7 km/h (4 Bft) 93,62 %
08.12.2018 04:22 6,3 C 5,6 C 5,0 C 89 % 1003,0 hPa 0,0 l/m 0 min 0 min 0 W/m 12,9 km/h (3 Bft) 93,62 %
08.12.2018 04:24 6,3 C 5,6 C 5,0 C 89 % 1003,0 hPa 0,0 l/m 0 min 0 min 0 W/m 25,7 km/h (4 Bft) 93,62 %
08.12.2018 04:26 6,3 C 5,6 C 5,0 C 89 % 1003,0 hPa 0,0 l/m 0 min 0 min 0 W/m 32,2 km/h (5 Bft) 93,48 %
08.12.2018 04:28 6,3 C 5,6 C 5,0 C 89 % 1003,0 hPa 0,0 l/m 0 min 0 min 0 W/m 29,0 km/h (5 Bft) 91,49 %
08.12.2018 04:30 6,4 C 6,1 C 5,0 C 89 % 1003,1 hPa 0,0 l/m 0 min 0 min 0 W/m 32,2 km/h (5 Bft) 93,62 %
08.12.2018 04:32 6,4 C 6,1 C 5,0 C 89 % 1003,1 hPa 0,0 l/m 0 min 0 min 0 W/m 32,2 km/h (5 Bft) 91,49 %
08.12.2018 04:34 6,4 C 6,1 C 5,0 C 89 % 1003,0 hPa 0,0 l/m 0 min 0 min 0 W/m 32,2 km/h (5 Bft) 93,62 %
08.12.2018 04:36 6,4 C 6,1 C 5,0 C 89 % 1002,8 hPa 0,0 l/m 0 min 0 min 0 W/m 35,4 km/h (5 Bft) 93,10 %
08.12.2018 04:38 6,4 C 6,1 C 5,0 C 89 % 1002,9 hPa 0,0 l/m 0 min 0 min 0 W/m 22,5 km/h (4 Bft) 91,43 %
08.12.2018 04:40 6,4 C 6,1 C 5,0 C 89 % 1003,1 hPa 0,0 l/m 0 min 0 min 0 W/m 29,0 km/h (5 Bft) 93,62 %
08.12.2018 04:42 6,4 C 6,1 C 5,0 C 90 % 1002,9 hPa 0,0 l/m 0 min 0 min 0 W/m 22,5 km/h (4 Bft) 91,49 %
08.12.2018 04:44 6,4 C 6,1 C 5,0 C 90 % 1002,9 hPa 0,0 l/m 0 min 0 min 0 W/m 29,0 km/h (5 Bft) 95,74 %
08.12.2018 04:46 6,4 C 6,1 C 5,6 C 90 % 1003,0 hPa 0,0 l/m 0 min 0 min 0 W/m 32,2 km/h (5 Bft) 93,62 %
08.12.2018 04:48 6,4 C 6,1 C 5,6 C 89 % 1002,9 hPa 0,0 l/m 0 min 0 min 0 W/m 35,4 km/h (5 Bft) 95,74 %
08.12.2018 04:50 6,4 C 6,1 C 5,6 C 89 % 1003,2 hPa 0,0 l/m 0 min 0 min 0 W/m 22,5 km/h (4 Bft) 91,30 %
08.12.2018 04:52 6,5 C 6,1 C 5,6 C 89 % 1002,9 hPa 0,0 l/m 0 min 0 min 0 W/m 22,5 km/h (4 Bft) 93,62 %
08.12.2018 04:54 6,5 C 6,1 C 5,6 C 89 % 1002,9 hPa 0,0 l/m 0 min 0 min 0 W/m 38,6 km/h (5 Bft) 95,74 %
08.12.2018 04:56 6,6 C 6,1 C 5,6 C 89 % 1002,8 hPa 0,0 l/m 0 min 0 min 0 W/m 25,7 km/h (4 Bft) 95,74 %
08.12.2018 04:58 6,6 C 6,1 C 5,6 C 89 % 1002,7 hPa 0,0 l/m 0 min 0 min 0 W/m 29,0 km/h (5 Bft) 91,49 %
08.12.2018 05:00 6,6 C 6,1 C 5,6 C 90 % 1002,7 hPa 0,0 l/m 0 min 0 min 0 W/m 22,5 km/h (4 Bft) 95,74 %
08.12.2018 05:02 6,7 C 6,7 C 5,6 C 90 % 1002,7 hPa 0,0 l/m 0 min 0 min 0 W/m 22,5 km/h (4 Bft) 95,65 %
08.12.2018 05:04 6,7 C 6,1 C 5,6 C 90 % 1002,7 hPa 0,0 l/m 0 min 0 min 0 W/m 22,5 km/h (4 Bft) 97,87 %
08.12.2018 05:06 6,7 C 6,1 C 5,6 C 89 % 1002,7 hPa 0,0 l/m 0 min 0 min 0 W/m 29,0 km/h (5 Bft) 100,00 %
08.12.2018 05:08 6,7 C 6,1 C 5,6 C 89 % 1002,7 hPa 0,0 l/m 0 min 0 min 0 W/m 29,0 km/h (5 Bft) 97,14 %
08.12.2018 05:10 6,8 C 6,1 C 5,6 C 89 % 1002,9 hPa 0,0 l/m 0 min 0 min 0 W/m 38,6 km/h (5 Bft) 97,87 %
08.12.2018 05:12 6,8 C 6,1 C 5,6 C 89 % 1002,8 hPa 0,0 l/m 0 min 2 min 0 W/m 29,0 km/h (5 Bft) 97,87 %
08.12.2018 05:14 6,8 C 6,1 C 5,6 C 89 % 1002,7 hPa 0,0 l/m 0 min 0 min 0 W/m 32,2 km/h (5 Bft) 100,00 %
08.12.2018 05:19 6,9 C 6,7 C 5,6 C 89 % 1002,7 hPa 0,0 l/m 0 min 0 min 0 W/m 32,2 km/h (5 Bft) 97,56 %
08.12.2018 05:20 6,9 C 6,7 C 5,6 C 89 % 1002,7 hPa 0,0 l/m 0 min 0 min 0 W/m 12,9 km/h (3 Bft) 100,00 %
08.12.2018 05:22 6,9 C 6,7 C 5,6 C 89 % 1002,7 hPa 0,0 l/m 0 min 0 min 0 W/m 29,0 km/h (5 Bft) 100,00 %
08.12.2018 05:24 6,9 C 6,7 C 6,1 C 89 % 1002,7 hPa 0,0 l/m 0 min 0 min 0 W/m 45,1 km/h (6 Bft) 100,00 %
08.12.2018 05:26 6,9 C 6,7 C 6,1 C 89 % 1002,7 hPa 0,0 l/m 0 min 0 min 0 W/m 35,4 km/h (5 Bft) 97,87 %
08.12.2018 05:28 7,0 C 6,7 C 6,1 C 89 % 1002,6 hPa 0,0 l/m 0 min 0 min 0 W/m 29,0 km/h (5 Bft) 100,00 %
08.12.2018 05:30 7,0 C 6,7 C 6,1 C 89 % 1002,6 hPa 0,0 l/m 0 min 0 min 0 W/m 22,5 km/h (4 Bft) 100,00 %
08.12.2018 05:32 7,0 C 6,7 C 6,1 C 89 % 1002,6 hPa 0,0 l/m 0 min 0 min 0 W/m 25,7 km/h (4 Bft) 100,00 %
08.12.2018 05:34 7,0 C 6,1 C 6,1 C 88 % 1002,5 hPa 0,0 l/m 0 min 2 min 0 W/m 29,0 km/h (5 Bft) 100,00 %
08.12.2018 05:36 7,1 C 6,1 C 5,6 C 89 % 1002,6 hPa 0,0 l/m 0 min 2 min 0 W/m 25,7 km/h (4 Bft) 98,39 %
08.12.2018 05:38 7,1 C 5,6 C 5,6 C 89 % 1002,7 hPa 0,0 l/m 0 min 2 min 0 W/m 19,3 km/h (3 Bft) 97,14 %
08.12.2018 05:40 7,1 C 6,1 C 5,6 C 89 % 1002,6 hPa 0,0 l/m 0 min 2 min 0 W/m 32,2 km/h (5 Bft) 100,00 %
08.12.2018 05:42 7,1 C 6,1 C 5,6 C 89 % 1002,6 hPa 0,0 l/m 0 min 2 min 0 W/m 48,3 km/h (6 Bft) 97,87 %
08.12.2018 05:44 7,1 C 6,1 C 5,6 C 89 % 1002,9 hPa 0,0 l/m 0 min 2 min 0 W/m 32,2 km/h (5 Bft) 100,00 %
08.12.2018 05:46 7,1 C 6,1 C 5,6 C 89 % 1002,7 hPa 0,0 l/m 0 min 2 min 0 W/m 25,7 km/h (4 Bft) 100,00 %
08.12.2018 05:48 7,1 C 6,1 C 5,6 C 89 % 1002,7 hPa 0,0 l/m 0 min 2 min 0 W/m 35,4 km/h (5 Bft) 100,00 %
08.12.2018 05:50 7,2 C 6,1 C 6,1 C 89 % 1002,9 hPa 0,0 l/m 0 min 2 min 0 W/m 29,0 km/h (5 Bft) 100,00 %
08.12.2018 05:52 7,2 C 6,7 C 6,1 C 89 % 1002,9 hPa 0,0 l/m 0 min 2 min 0 W/m 45,1 km/h (6 Bft) 100,00 %
08.12.2018 05:54 7,2 C 6,7 C 6,1 C 89 % 1002,7 hPa 0,0 l/m 0 min 2 min 0 W/m 32,2 km/h (5 Bft) 97,92 %
08.12.2018 05:56 7,2 C 6,7 C 6,1 C 89 % 1002,7 hPa 0,0 l/m 0 min 2 min 0 W/m 29,0 km/h (5 Bft) 100,00 %
08.12.2018 05:58 7,2 C 6,7 C 6,1 C 88 % 1002,7 hPa 0,0 l/m 0 min 2 min 0 W/m 25,7 km/h (4 Bft) 100,00 %
08.12.2018 06:00 7,2 C 6,7 C 6,1 C 88 % 1002,7 hPa 0,0 l/m 0 min 2 min 0 W/m 32,2 km/h (5 Bft) 100,00 %
08.12.2018 06:02 7,3 C 6,7 C 6,1 C 88 % 1002,4 hPa 0,0 l/m 0 min 2 min 0 W/m 35,4 km/h (5 Bft) 100,00 %
08.12.2018 06:04 7,3 C 6,7 C 6,1 C 88 % 1002,7 hPa 0,0 l/m 0 min 2 min 0 W/m 22,5 km/h (4 Bft) 100,00 %
08.12.2018 06:08 7,3 C 7,2 C 6,1 C 88 % 1002,7 hPa 0,0 l/m 0 min 0 min 0 W/m 38,6 km/h (5 Bft) 98,88 %
08.12.2018 06:10 7,3 C 6,7 C 6,1 C 88 % 1002,5 hPa 0,0 l/m 0 min 2 min 0 W/m 32,2 km/h (5 Bft) 100,00 %
08.12.2018 06:12 7,3 C 6,7 C 6,1 C 88 % 1002,7 hPa 0,0 l/m 0 min 0 min 0 W/m 38,6 km/h (5 Bft) 100,00 %
08.12.2018 06:14 7,4 C 6,7 C 6,1 C 88 % 1002,6 hPa 0,0 l/m 0 min 2 min 0 W/m 41,8 km/h (6 Bft) 100,00 %
08.12.2018 06:16 7,4 C 6,7 C 6,1 C 88 % 1002,4 hPa 0,0 l/m 0 min 0 min 0 W/m 41,8 km/h (6 Bft) 100,00 %
08.12.2018 06:18 7,4 C 6,7 C 6,1 C 88 % 1002,4 hPa 0,0 l/m 0 min 0 min 0 W/m 35,4 km/h (5 Bft) 100,00 %
08.12.2018 06:20 7,4 C 6,7 C 6,1 C 88 % 1002,5 hPa 0,0 l/m 0 min 0 min 0 W/m 25,7 km/h (4 Bft) 100,00 %
08.12.2018 06:22 7,4 C 6,7 C 6,1 C 88 % 1002,4 hPa 0,0 l/m 0 min 0 min 0 W/m 19,3 km/h (3 Bft) 100,00 %
08.12.2018 06:24 7,4 C 7,2 C 6,1 C 88 % 1002,3 hPa 0,0 l/m 0 min 0 min 0 W/m 38,6 km/h (5 Bft) 100,00 %
08.12.2018 06:26 7,4 C 7,2 C 6,7 C 87 % 1002,7 hPa 0,0 l/m 0 min 0 min 0 W/m 32,2 km/h (5 Bft) 100,00 %
08.12.2018 06:28 7,5 C 7,2 C 6,7 C 87 % 1002,5 hPa 0,0 l/m 0 min 0 min 0 W/m 32,2 km/h (5 Bft) 97,62 %
08.12.2018 06:30 7,5 C 7,2 C 6,7 C 87 % 1002,4 hPa 0,0 l/m 0 min 0 min 0 W/m 35,4 km/h (5 Bft) 100,00 %
08.12.2018 06:32 7,6 C 7,2 C 6,7 C 87 % 1002,3 hPa 0,0 l/m 0 min 0 min 0 W/m 32,2 km/h (5 Bft) 98,00 %
08.12.2018 06:34 7,6 C 7,2 C 6,7 C 87 % 1002,3 hPa 0,0 l/m 0 min 0 min 0 W/m 35,4 km/h (5 Bft) 100,00 %
08.12.2018 06:36 7,6 C 7,2 C 6,7 C 87 % 1002,4 hPa 0,0 l/m 0 min 0 min 0 W/m 41,8 km/h (6 Bft) 100,00 %
08.12.2018 06:38 7,6 C 7,2 C 6,7 C 87 % 1002,3 hPa 0,0 l/m 0 min 0 min 0 W/m 35,4 km/h (5 Bft) 100,00 %
08.12.2018 06:40 7,6 C 7,2 C 6,1 C 87 % 1002,4 hPa 0,0 l/m 0 min 0 min 0 W/m 32,2 km/h (5 Bft) 97,62 %
08.12.2018 06:42 7,6 C 7,2 C 6,1 C 87 % 1002,5 hPa 0,0 l/m 0 min 0 min 0 W/m 22,5 km/h (4 Bft) 95,65 %
08.12.2018 06:44 7,6 C 7,2 C 6,7 C 87 % 1002,4 hPa 0,0 l/m 0 min 0 min 0 W/m 41,8 km/h (6 Bft) 97,96 %
08.12.2018 06:46 7,6 C 7,2 C 6,7 C 87 % 1002,4 hPa 0,0 l/m 0 min 0 min 0 W/m 29,0 km/h (5 Bft) 95,92 %
08.12.2018 06:48 7,6 C 7,2 C 6,1 C 87 % 1002,4 hPa 0,0 l/m 0 min 0 min 0 W/m 25,7 km/h (4 Bft) 93,75 %
08.12.2018 06:50 7,6 C 7,2 C 6,1 C 87 % 1002,3 hPa 0,0 l/m 0 min 0 min 0 W/m 25,7 km/h (4 Bft) 95,74 %
08.12.2018 06:52 7,6 C 7,2 C 6,7 C 87 % 1002,5 hPa 0,0 l/m 0 min 0 min 0 W/m 57,9 km/h (7 Bft) 97,87 %
08.12.2018 06:54 7,6 C 7,2 C 6,7 C 87 % 1002,3 hPa 0,0 l/m 0 min 0 min 0 W/m 22,5 km/h (4 Bft) 97,56 %
08.12.2018 06:56 7,6 C 7,2 C 6,1 C 87 % 1002,5 hPa 0,0 l/m 0 min 0 min 0 W/m 16,1 km/h (3 Bft) 93,88 %
08.12.2018 06:58 7,6 C 7,2 C 6,1 C 87 % 1002,4 hPa 0,0 l/m 0 min 0 min 0 W/m 35,4 km/h (5 Bft) 96,00 %
08.12.2018 07:00 7,6 C 7,2 C 6,1 C 87 % 1002,4 hPa 0,0 l/m 0 min 0 min 0 W/m 29,0 km/h (5 Bft) 95,74 %
08.12.2018 07:02 7,6 C 6,7 C 6,1 C 87 % 1002,3 hPa 0,0 l/m 0 min 0 min 0 W/m 32,2 km/h (5 Bft) 95,74 %
08.12.2018 07:04 7,6 C 6,7 C 6,1 C 87 % 1002,2 hPa 0,0 l/m 0 min 0 min 0 W/m 29,0 km/h (5 Bft) 95,74 %
08.12.2018 07:06 7,6 C 6,7 C 6,1 C 87 % 1002,2 hPa 0,0 l/m 0 min 0 min 0 W/m 32,2 km/h (5 Bft) 93,62 %
08.12.2018 07:08 7,5 C 6,7 C 6,1 C 87 % 1002,3 hPa 0,0 l/m 0 min 0 min 0 W/m 41,8 km/h (6 Bft) 95,24 %
08.12.2018 07:10 7,5 C 6,7 C 6,1 C 87 % 1002,3 hPa 0,0 l/m 0 min 0 min 0 W/m 38,6 km/h (5 Bft) 93,88 %
08.12.2018 07:12 7,5 C 6,7 C 6,1 C 87 % 1002,4 hPa 0,0 l/m 0 min 0 min 0 W/m 25,7 km/h (4 Bft) 93,62 %
08.12.2018 07:14 7,4 C 6,7 C 6,1 C 87 % 1002,3 hPa 0,0 l/m 0 min 0 min 0 W/m 41,8 km/h (6 Bft) 93,88 %
08.12.2018 07:16 7,4 C 6,7 C 6,1 C 87 % 1002,1 hPa 0,0 l/m 0 min 0 min 0 W/m 29,0 km/h (5 Bft) 95,74 %
08.12.2018 07:18 7,4 C 6,7 C 6,1 C 87 % 1002,2 hPa 0,0 l/m 0 min 0 min 0 W/m 25,7 km/h (4 Bft) 93,62 %
08.12.2018 07:20 7,4 C 6,7 C 6,1 C 88 % 1002,0 hPa 0,0 l/m 0 min 0 min 0 W/m 22,5 km/h (4 Bft) 95,65 %
08.12.2018 07:22 7,4 C 6,7 C 6,1 C 88 % 1002,1 hPa 0,0 l/m 0 min 0 min 0 W/m 29,0 km/h (5 Bft) 95,45 %
08.12.2018 07:24 7,4 C 6,7 C 6,1 C 88 % 1002,1 hPa 0,0 l/m 0 min 0 min 0 W/m 25,7 km/h (4 Bft) 91,84 %
08.12.2018 07:26 7,4 C 6,7 C 6,1 C 88 % 1002,0 hPa 0,0 l/m 0 min 0 min 0 W/m 25,7 km/h (4 Bft) 93,75 %
08.12.2018 07:28 7,4 C 6,7 C 6,1 C 88 % 1002,2 hPa 0,0 l/m 0 min 0 min 0 W/m 41,8 km/h (6 Bft) 93,62 %
08.12.2018 07:30 7,3 C 6,7 C 6,1 C 88 % 1002,0 hPa 0,0 l/m 0 min 0 min 0 W/m 41,8 km/h (6 Bft) 95,74 %
08.12.2018 07:32 7,3 C 6,7 C 6,1 C 88 % 1002,1 hPa 0,0 l/m 0 min 0 min 0 W/m 32,2 km/h (5 Bft) 97,62 %
08.12.2018 07:34 7,3 C 6,7 C 6,1 C 88 % 1002,1 hPa 0,0 l/m 0 min 0 min 0 W/m 32,2 km/h (5 Bft) 97,96 %
08.12.2018 07:36 7,3 C 6,7 C 6,1 C 88 % 1002,1 hPa 0,0 l/m 0 min 0 min 0 W/m 19,3 km/h (3 Bft) 97,87 %
08.12.2018 07:38 7,3 C 6,7 C 6,1 C 88 % 1001,9 hPa 0,0 l/m 0 min 0 min 0 W/m 32,2 km/h (5 Bft) 97,96 %
08.12.2018 07:40 7,3 C 6,7 C 6,1 C 88 % 1002,0 hPa 0,0 l/m 0 min 0 min 0 W/m 32,2 km/h (5 Bft) 95,83 %
08.12.2018 07:42 7,3 C 6,7 C 6,1 C 88 % 1002,0 hPa 0,0 l/m 0 min 0 min 0 W/m 41,8 km/h (6 Bft) 97,87 %
08.12.2018 07:44 7,3 C 6,7 C 6,1 C 88 % 1001,9 hPa 0,0 l/m 0 min 0 min 0 W/m 32,2 km/h (5 Bft) 93,48 %
08.12.2018 07:46 7,4 C 6,7 C 6,1 C 88 % 1001,9 hPa 0,0 l/m 0 min 0 min 0 W/m 29,0 km/h (5 Bft) 100,00 %
08.12.2018 07:48 7,3 C 6,7 C 6,1 C 88 % 1001,9 hPa 0,0 l/m 0 min 0 min 0 W/m 25,7 km/h (4 Bft) 97,87 %
08.12.2018 07:50 7,3 C 6,7 C 6,1 C 88 % 1001,9 hPa 0,0 l/m 0 min 2 min 0 W/m 32,2 km/h (5 Bft) 100,00 %
08.12.2018 07:52 7,3 C 6,7 C 6,1 C 88 % 1001,9 hPa 0,0 l/m 0 min 2 min 0 W/m 45,1 km/h (6 Bft) 97,92 %
08.12.2018 07:54 7,3 C 6,1 C 5,6 C 88 % 1002,1 hPa 0,0 l/m 0 min 2 min 0 W/m 35,4 km/h (5 Bft) 95,92 %
08.12.2018 07:56 7,3 C 6,1 C 5,6 C 88 % 1001,9 hPa 0,0 l/m 0 min 2 min 0 W/m 32,2 km/h (5 Bft) 97,92 %
08.12.2018 07:58 7,3 C 5,6 C 5,6 C 88 % 1002,0 hPa 0,0 l/m 0 min 2 min 0 W/m 35,4 km/h (5 Bft) 95,74 %
08.12.2018 08:00 7,3 C 5,6 C 5,6 C 89 % 1002,0 hPa 0,0 l/m 0 min 2 min 0 W/m 32,2 km/h (5 Bft) 97,87 %
08.12.2018 08:02 7,3 C 5,6 C 5,6 C 89 % 1002,0 hPa 0,0 l/m 0 min 2 min 0 W/m 25,7 km/h (4 Bft) 97,62 %
08.12.2018 08:04 7,3 C 5,6 C 5,6 C 89 % 1002,0 hPa 0,0 l/m 0 min 2 min 0 W/m 25,7 km/h (4 Bft) 97,83 %
08.12.2018 08:06 7,3 C 5,6 C 5,6 C 89 % 1002,0 hPa 0,0 l/m 0 min 2 min 0 W/m 45,1 km/h (6 Bft) 96,00 %
08.12.2018 08:08 7,2 C 5,6 C 5,6 C 89 % 1001,9 hPa 0,0 l/m 0 min 2 min 0 W/m 45,1 km/h (6 Bft) 97,87 %
08.12.2018 08:10 7,2 C 5,6 C 5,6 C 89 % 1002,0 hPa 0,0 l/m 0 min 2 min 0 W/m 22,5 km/h (4 Bft) 100,00 %
08.12.2018 08:12 7,2 C 5,6 C 5,6 C 90 % 1001,9 hPa 0,0 l/m 0 min 2 min 0 W/m 38,6 km/h (5 Bft) 97,87 %
08.12.2018 08:14 7,2 C 5,6 C 5,0 C 90 % 1002,0 hPa 0,2 l/m 0 min 2 min 0 W/m 32,2 km/h (5 Bft) 95,74 %
08.12.2018 08:16 7,2 C 5,6 C 5,0 C 90 % 1001,9 hPa 0,0 l/m 0 min 2 min 0 W/m 38,6 km/h (5 Bft) 97,87 %
08.12.2018 08:18 7,2 C 5,6 C 5,0 C 90 % 1001,9 hPa 0,0 l/m 0 min 2 min 0 W/m 29,0 km/h (5 Bft) 97,83 %
08.12.2018 08:20 7,1 C 5,6 C 5,0 C 90 % 1001,9 hPa 0,0 l/m 0 min 2 min 0 W/m 29,0 km/h (5 Bft) 95,35 %
08.12.2018 08:22 7,1 C 5,6 C 5,0 C 90 % 1002,1 hPa 0,0 l/m 0 min 2 min 0 W/m 38,6 km/h (5 Bft) 94,00 %
08.12.2018 08:24 7,1 C 5,6 C 5,0 C 91 % 1001,8 hPa 0,0 l/m 0 min 2 min 0 W/m 48,3 km/h (6 Bft) 91,67 %
08.12.2018 08:26 7,0 C 5,6 C 5,0 C 91 % 1002,0 hPa 0,0 l/m 0 min 2 min 0 W/m 25,7 km/h (4 Bft) 97,87 %
08.12.2018 08:28 7,0 C 5,6 C 5,0 C 91 % 1001,9 hPa 0,0 l/m 0 min 2 min 0 W/m 22,5 km/h (4 Bft) 95,74 %
08.12.2018 08:30 7,0 C 5,6 C 5,0 C 91 % 1001,9 hPa 0,0 l/m 0 min 2 min 0 W/m 41,8 km/h (6 Bft) 95,12 %
08.12.2018 08:32 7,0 C 5,6 C 5,0 C 91 % 1001,9 hPa 0,0 l/m 0 min 2 min 0 W/m 38,6 km/h (5 Bft) 98,00 %
08.12.2018 08:34 7,0 C 5,6 C 5,0 C 91 % 1001,8 hPa 0,0 l/m 0 min 2 min 0 W/m 19,3 km/h (3 Bft) 97,96 %
08.12.2018 08:36 7,0 C 5,6 C 5,0 C 91 % 1001,8 hPa 0,0 l/m 0 min 2 min 0 W/m 19,3 km/h (3 Bft) 97,87 %
08.12.2018 08:38 7,0 C 5,6 C 5,0 C 91 % 1001,9 hPa 0,0 l/m 0 min 2 min 0 W/m 22,5 km/h (4 Bft) 97,87 %
08.12.2018 08:40 6,9 C 5,6 C 5,0 C 91 % 1001,9 hPa 0,0 l/m 0 min 2 min 0 W/m 29,0 km/h (5 Bft) 97,87 %
08.12.2018 08:42 7,0 C 5,6 C 5,0 C 91 % 1001,8 hPa 0,2 l/m 0 min 2 min 0 W/m 32,2 km/h (5 Bft) 95,65 %
08.12.2018 08:44 6,9 C 5,6 C 5,0 C 91 % 1001,8 hPa 0,0 l/m 0 min 2 min 0 W/m 25,7 km/h (4 Bft) 97,87 %
08.12.2018 08:46 6,9 C 5,6 C 5,0 C 92 % 1001,9 hPa 0,0 l/m 0 min 2 min 0 W/m 35,4 km/h (5 Bft) 95,35 %
08.12.2018 08:48 6,9 C 5,6 C 5,0 C 92 % 1001,8 hPa 0,0 l/m 0 min 2 min 0 W/m 29,0 km/h (5 Bft) 95,92 %
08.12.2018 08:50 6,9 C 5,6 C 5,0 C 92 % 1001,8 hPa 0,0 l/m 0 min 2 min 0 W/m 22,5 km/h (4 Bft) 97,92 %
08.12.2018 08:52 6,9 C 5,6 C 5,0 C 92 % 1001,8 hPa 0,0 l/m 0 min 2 min 1 W/m 16,1 km/h (3 Bft) 97,92 %
08.12.2018 08:54 6,9 C 5,6 C 5,0 C 92 % 1001,8 hPa 0,0 l/m 0 min 2 min 1 W/m 22,5 km/h (4 Bft) 100,00 %
08.12.2018 08:56 6,9 C 5,6 C 5,0 C 92 % 1001,8 hPa 0,0 l/m 0 min 2 min 0 W/m 35,4 km/h (5 Bft) 97,87 %
08.12.2018 08:58 6,9 C 5,6 C 5,0 C 92 % 1001,8 hPa 0,0 l/m 0 min 2 min 1 W/m 45,1 km/h (6 Bft) 100,00 %
08.12.2018 09:00 7,0 C 5,6 C 5,6 C 92 % 1001,8 hPa 0,0 l/m 0 min 2 min 5 W/m 32,2 km/h (5 Bft) 97,96 %
08.12.2018 09:02 7,0 C 5,6 C 5,6 C 92 % 1001,7 hPa 0,0 l/m 0 min 2 min 6 W/m 19,3 km/h (3 Bft) 100,00 %
08.12.2018 09:04 7,0 C 5,6 C 5,6 C 92 % 1001,9 hPa 0,0 l/m 0 min 0 min 7 W/m 32,2 km/h (5 Bft) 100,00 %
08.12.2018 09:06 7,1 C 5,6 C 5,6 C 92 % 1001,8 hPa 0,0 l/m 0 min 0 min 8 W/m 22,5 km/h (4 Bft) 100,00 %
08.12.2018 09:08 7,1 C 6,1 C 5,6 C 92 % 1001,8 hPa 0,0 l/m 0 min 0 min 11 W/m 19,3 km/h (3 Bft) 97,92 %
08.12.2018 09:10 7,1 C 6,1 C 5,6 C 92 % 1001,8 hPa 0,0 l/m 0 min 0 min 15 W/m 19,3 km/h (3 Bft) 100,00 %
08.12.2018 09:12 7,1 C 6,1 C 5,6 C 92 % 1001,8 hPa 0,0 l/m 0 min 0 min 19 W/m 48,3 km/h (6 Bft) 100,00 %
08.12.2018 09:14 7,1 C 6,1 C 5,6 C 92 % 1001,7 hPa 0,0 l/m 0 min 0 min 20 W/m 35,4 km/h (5 Bft) 100,00 %
08.12.2018 09:16 7,1 C 6,1 C 5,6 C 92 % 1001,7 hPa 0,0 l/m 0 min 0 min 28 W/m 22,5 km/h (4 Bft) 100,00 %
08.12.2018 09:18 7,2 C 6,1 C 5,6 C 92 % 1001,7 hPa 0,0 l/m 0 min 0 min 30 W/m 29,0 km/h (5 Bft) 97,96 %
08.12.2018 09:20 7,2 C 6,1 C 5,6 C 92 % 1001,7 hPa 0,0 l/m 0 min 2 min 15 W/m 45,1 km/h (6 Bft) 100,00 %
08.12.2018 09:22 7,2 C 6,1 C 5,6 C 92 % 1001,6 hPa 0,0 l/m 0 min 2 min 15 W/m 32,2 km/h (5 Bft) 97,87 %
08.12.2018 09:24 7,3 C 6,1 C 5,6 C 91 % 1001,8 hPa 0,0 l/m 0 min 2 min 12 W/m 29,0 km/h (5 Bft) 95,74 %
08.12.2018 09:26 7,3 C 6,1 C 5,6 C 91 % 1001,7 hPa 0,0 l/m 0 min 2 min 13 W/m 32,2 km/h (5 Bft) 100,00 %
08.12.2018 09:28 7,3 C 6,1 C 5,6 C 91 % 1001,6 hPa 0,0 l/m 0 min 2 min 17 W/m 35,4 km/h (5 Bft) 100,00 %
08.12.2018 09:30 7,3 C 6,1 C 5,6 C 91 % 1001,6 hPa 0,0 l/m 0 min 2 min 14 W/m 25,7 km/h (4 Bft) 97,96 %
08.12.2018 09:32 7,3 C 5,6 C 5,6 C 91 % 1001,6 hPa 0,0 l/m 0 min 2 min 13 W/m 25,7 km/h (4 Bft) 96,00 %
08.12.2018 09:34 7,3 C 6,1 C 5,6 C 91 % 1001,5 hPa 0,0 l/m 0 min 2 min 12 W/m 29,0 km/h (5 Bft) 95,74 %
08.12.2018 09:36 7,3 C 6,1 C 5,6 C 91 % 1001,5 hPa 0,0 l/m 0 min 2 min 17 W/m 38,6 km/h (5 Bft) 97,87 %
08.12.2018 09:38 7,4 C 6,1 C 5,6 C 91 % 1001,6 hPa 0,0 l/m 0 min 2 min 16 W/m 29,0 km/h (5 Bft) 93,62 %
08.12.2018 09:40 7,4 C 6,1 C 5,6 C 91 % 1001,6 hPa 0,0 l/m 0 min 2 min 12 W/m 38,6 km/h (5 Bft) 95,24 %
08.12.2018 09:42 7,4 C 6,1 C 5,6 C 91 % 1001,6 hPa 0,0 l/m 0 min 2 min 12 W/m 22,5 km/h (4 Bft) 95,74 %
08.12.2018 09:44 7,4 C 6,1 C 5,6 C 91 % 1001,6 hPa 0,0 l/m 0 min 2 min 9 W/m 19,3 km/h (3 Bft) 91,49 %
08.12.2018 09:46 7,4 C 6,1 C 5,6 C 91 % 1001,4 hPa 0,2 l/m 0 min 2 min 13 W/m 51,5 km/h (7 Bft) 95,92 %
08.12.2018 09:48 7,4 C 6,1 C 5,6 C 91 % 1001,5 hPa 0,0 l/m 0 min 2 min 14 W/m 25,7 km/h (4 Bft) 95,83 %
08.12.2018 09:50 7,4 C 6,1 C 5,6 C 91 % 1001,5 hPa 0,0 l/m 0 min 2 min 11 W/m 12,9 km/h (3 Bft) 95,83 %
08.12.2018 09:52 7,4 C 6,1 C 5,6 C 91 % 1001,5 hPa 0,0 l/m 0 min 2 min 9 W/m 32,2 km/h (5 Bft) 95,65 %
08.12.2018 09:54 7,5 C 6,1 C 5,6 C 91 % 1001,5 hPa 0,0 l/m 0 min 2 min 10 W/m 19,3 km/h (3 Bft) 95,74 %
08.12.2018 09:56 7,5 C 6,1 C 5,6 C 91 % 1001,4 hPa 0,0 l/m 0 min 2 min 17 W/m 25,7 km/h (4 Bft) 93,02 %
08.12.2018 09:58 7,5 C 6,1 C 5,6 C 91 % 1001,5 hPa 0,0 l/m 0 min 2 min 16 W/m 29,0 km/h (5 Bft) 92,00 %
08.12.2018 10:00 7,5 C 6,1 C 5,6 C 91 % 1001,5 hPa 0,0 l/m 0 min 2 min 14 W/m 22,5 km/h (4 Bft) 91,30 %
08.12.2018 10:02 7,6 C 6,1 C 5,6 C 91 % 1001,4 hPa 0,0 l/m 0 min 2 min 14 W/m 25,7 km/h (4 Bft) 95,74 %
08.12.2018 10:04 7,6 C 6,1 C 5,6 C 91 % 1001,4 hPa 0,0 l/m 0 min 2 min 21 W/m 25,7 km/h (4 Bft) 95,74 %
08.12.2018 10:06 7,6 C 6,1 C 5,6 C 91 % 1001,4 hPa 0,0 l/m 0 min 2 min 33 W/m 19,3 km/h (3 Bft) 95,83 %
08.12.2018 10:08 7,6 C 6,1 C 5,6 C 91 % 1001,3 hPa 0,0 l/m 0 min 2 min 22 W/m 22,5 km/h (4 Bft) 95,74 %
08.12.2018 10:10 7,7 C 6,1 C 6,1 C 91 % 1001,3 hPa 0,0 l/m 0 min 2 min 21 W/m 16,1 km/h (3 Bft) 95,74 %
08.12.2018 10:12 7,7 C 6,1 C 6,1 C 91 % 1001,2 hPa 0,0 l/m 0 min 2 min 25 W/m 22,5 km/h (4 Bft) 95,74 %
08.12.2018 10:14 7,7 C 6,1 C 6,1 C 91 % 1001,3 hPa 0,0 l/m 0 min 2 min 25 W/m 19,3 km/h (3 Bft) 93,62 %
08.12.2018 10:16 7,7 C 6,1 C 6,1 C 91 % 1001,4 hPa 0,0 l/m 0 min 2 min 25 W/m 22,5 km/h (4 Bft) 95,24 %
08.12.2018 10:18 7,7 C 6,1 C 5,6 C 91 % 1001,3 hPa 0,0 l/m 0 min 2 min 23 W/m 12,9 km/h (3 Bft) 95,92 %
08.12.2018 10:20 7,8 C 6,1 C 5,6 C 91 % 1001,4 hPa 0,0 l/m 0 min 2 min 29 W/m 19,3 km/h (3 Bft) 95,92 %
08.12.2018 10:22 7,8 C 6,1 C 5,6 C 91 % 1001,4 hPa 0,0 l/m 0 min 2 min 29 W/m 16,1 km/h (3 Bft) 95,74 %
08.12.2018 10:24 7,8 C 6,1 C 5,6 C 91 % 1001,5 hPa 0,0 l/m 0 min 2 min 18 W/m 19,3 km/h (3 Bft) 97,87 %
08.12.2018 10:26 7,8 C 6,1 C 5,6 C 91 % 1001,6 hPa 0,0 l/m 0 min 2 min 17 W/m 29,0 km/h (5 Bft) 100,00 %
08.12.2018 10:28 7,8 C 6,1 C 5,6 C 91 % 1001,4 hPa 0,0 l/m 0 min 2 min 18 W/m 25,7 km/h (4 Bft) 100,00 %
08.12.2018 10:30 7,8 C 6,1 C 5,6 C 91 % 1001,4 hPa 0,0 l/m 0 min 2 min 20 W/m 35,4 km/h (5 Bft) 97,96 %
08.12.2018 10:32 7,8 C 6,1 C 5,6 C 91 % 1001,3 hPa 0,0 l/m 0 min 2 min 17 W/m 29,0 km/h (5 Bft) 100,00 %
08.12.2018 10:34 7,8 C 6,1 C 6,1 C 91 % 1001,3 hPa 0,0 l/m 0 min 2 min 17 W/m 35,4 km/h (5 Bft) 100,00 %
08.12.2018 10:36 7,8 C 6,7 C 6,1 C 90 % 1001,3 hPa 0,0 l/m 0 min 2 min 17 W/m 29,0 km/h (5 Bft) 100,00 %
08.12.2018 10:38 7,8 C 6,7 C 6,1 C 90 % 1001,3 hPa 0,0 l/m 0 min 2 min 18 W/m 32,2 km/h (5 Bft) 100,00 %
08.12.2018 10:40 7,9 C 6,7 C 6,1 C 90 % 1001,4 hPa 0,0 l/m 0 min 2 min 25 W/m 16,1 km/h (3 Bft) 100,00 %
08.12.2018 10:42 7,9 C 6,7 C 6,1 C 90 % 1001,4 hPa 0,0 l/m 0 min 2 min 25 W/m 22,5 km/h (4 Bft) 97,96 %
08.12.2018 10:44 7,9 C 6,7 C 6,1 C 90 % 1001,4 hPa 0,0 l/m 0 min 2 min 30 W/m 25,7 km/h (4 Bft) 100,00 %
08.12.2018 10:46 7,9 C 6,7 C 6,1 C 90 % 1001,4 hPa 0,0 l/m 0 min 2 min 32 W/m 25,7 km/h (4 Bft) 100,00 %
08.12.2018 10:48 8,0 C 6,7 C 6,1 C 90 % 1001,4 hPa 0,0 l/m 0 min 2 min 32 W/m 29,0 km/h (5 Bft) 100,00 %
08.12.2018 10:50 8,0 C 6,7 C 6,1 C 90 % 1001,3 hPa 0,0 l/m 0 min 2 min 31 W/m 29,0 km/h (5 Bft) 100,00 %
08.12.2018 10:52 8,1 C 7,2 C 6,7 C 90 % 1001,6 hPa 0,0 l/m 0 min 2 min 35 W/m 29,0 km/h (5 Bft) 97,96 %
08.12.2018 10:54 8,1 C 6,7 C 6,7 C 90 % 1001,6 hPa 0,0 l/m 0 min 2 min 33 W/m 29,0 km/h (5 Bft) 100,00 %
08.12.2018 10:56 8,1 C 6,7 C 6,7 C 90 % 1001,6 hPa 0,0 l/m 0 min 2 min 26 W/m 19,3 km/h (3 Bft) 97,92 %
08.12.2018 10:58 8,2 C 6,7 C 6,1 C 89 % 1001,4 hPa 0,0 l/m 0 min 2 min 31 W/m 32,2 km/h (5 Bft) 100,00 %
08.12.2018 11:00 8,2 C 6,7 C 6,1 C 90 % 1001,3 hPa 0,0 l/m 0 min 2 min 31 W/m 38,6 km/h (5 Bft) 100,00 %
08.12.2018 11:02 8,2 C 6,7 C 6,1 C 90 % 1001,3 hPa 0,0 l/m 0 min 2 min 28 W/m 38,6 km/h (5 Bft) 100,00 %
08.12.2018 11:04 8,2 C 6,7 C 6,1 C 90 % 1001,4 hPa 0,0 l/m 0 min 2 min 30 W/m 19,3 km/h (3 Bft) 100,00 %
08.12.2018 11:06 8,2 C 6,7 C 6,1 C 90 % 1001,3 hPa 0,2 l/m 0 min 2 min 25 W/m 32,2 km/h (5 Bft) 100,00 %
08.12.2018 11:08 8,2 C 6,7 C 6,1 C 90 % 1001,3 hPa 0,0 l/m 0 min 2 min 26 W/m 35,4 km/h (5 Bft) 97,96 %
08.12.2018 11:10 8,2 C 6,7 C 6,1 C 90 % 1001,4 hPa 0,0 l/m 0 min 2 min 27 W/m 25,7 km/h (4 Bft) 100,00 %
08.12.2018 11:12 8,2 C 6,7 C 6,1 C 90 % 1001,5 hPa 0,0 l/m 0 min 2 min 35 W/m 25,7 km/h (4 Bft) 100,00 %
08.12.2018 11:14 8,2 C 6,7 C 6,1 C 90 % 1001,5 hPa 0,0 l/m 0 min 2 min 41 W/m 25,7 km/h (4 Bft) 100,00 %
08.12.2018 11:16 8,2 C 6,7 C 6,1 C 90 % 1001,5 hPa 0,0 l/m 0 min 2 min 40 W/m 22,5 km/h (4 Bft) 100,00 %
08.12.2018 11:18 8,2 C 6,7 C 6,1 C 90 % 1001,5 hPa 0,0 l/m 0 min 2 min 38 W/m 22,5 km/h (4 Bft) 100,00 %
08.12.2018 11:20 8,2 C 6,7 C 6,1 C 90 % 1001,4 hPa 0,0 l/m 0 min 2 min 43 W/m 25,7 km/h (4 Bft) 100,00 %
08.12.2018 11:22 8,2 C 6,7 C 6,1 C 90 % 1001,4 hPa 0,0 l/m 0 min 2 min 51 W/m 29,0 km/h (5 Bft) 98,00 %
08.12.2018 11:24 8,2 C 6,7 C 6,1 C 90 % 1001,4 hPa 0,0 l/m 0 min 2 min 43 W/m 22,5 km/h (4 Bft) 100,00 %
08.12.2018 11:26 8,2 C 6,7 C 6,1 C 90 % 1001,4 hPa 0,0 l/m 0 min 2 min 40 W/m 29,0 km/h (5 Bft) 100,00 %
08.12.2018 11:28 8,2 C 6,7 C 6,1 C 90 % 1001,5 hPa 0,0 l/m 0 min 2 min 41 W/m 22,5 km/h (4 Bft) 97,87 %
08.12.2018 11:30 8,2 C 6,7 C 6,1 C 90 % 1001,5 hPa 0,0 l/m 0 min 2 min 41 W/m 25,7 km/h (4 Bft) 100,00 %
08.12.2018 11:32 8,2 C 6,7 C 6,1 C 90 % 1001,5 hPa 0,0 l/m 0 min 2 min 33 W/m 29,0 km/h (5 Bft) 100,00 %
08.12.2018 11:34 8,2 C 6,7 C 6,1 C 90 % 1001,5 hPa 0,0 l/m 0 min 2 min 34 W/m 22,5 km/h (4 Bft) 100,00 %
08.12.2018 11:36 8,3 C 6,7 C 6,7 C 90 % 1001,5 hPa 0,0 l/m 0 min 2 min 46 W/m 12,9 km/h (3 Bft) 97,92 %
08.12.2018 11:38 8,3 C 7,2 C 6,7 C 90 % 1001,4 hPa 0,0 l/m 0 min 2 min 75 W/m 32,2 km/h (5 Bft) 97,87 %
08.12.2018 11:40 8,3 C 7,2 C 6,7 C 90 % 1001,5 hPa 0,0 l/m 0 min 2 min 103 W/m 25,7 km/h (4 Bft) 93,62 %
08.12.2018 11:42 8,4 C 7,2 C 6,7 C 90 % 1001,3 hPa 0,0 l/m 0 min 2 min 141 W/m 25,7 km/h (4 Bft) 97,87 %
08.12.2018 11:44 8,4 C 7,8 C 7,2 C 90 % 1001,4 hPa 0,0 l/m 2 min 2 min 165 W/m 22,5 km/h (4 Bft) 97,62 %
08.12.2018 11:46 8,5 C 7,2 C 7,2 C 90 % 1001,5 hPa 0,0 l/m 0 min 2 min 111 W/m 19,3 km/h (3 Bft) 97,96 %
08.12.2018 11:48 8,6 C 7,2 C 7,2 C 90 % 1001,5 hPa 0,0 l/m 0 min 2 min 76 W/m 16,1 km/h (3 Bft) 97,96 %
08.12.2018 11:50 8,6 C 7,8 C 7,2 C 90 % 1001,5 hPa 0,0 l/m 0 min 2 min 75 W/m 25,7 km/h (4 Bft) 97,87 %
08.12.2018 11:52 8,6 C 7,8 C 7,2 C 90 % 1001,5 hPa 0,0 l/m 0 min 2 min 62 W/m 22,5 km/h (4 Bft) 97,87 %
08.12.2018 11:54 8,6 C 7,8 C 7,2 C 89 % 1001,6 hPa 0,0 l/m 0 min 2 min 60 W/m 25,7 km/h (4 Bft) 97,62 %
08.12.2018 11:56 8,7 C 7,8 C 7,2 C 89 % 1001,6 hPa 0,0 l/m 0 min 2 min 71 W/m 25,7 km/h (4 Bft) 97,92 %
08.12.2018 11:58 8,7 C 7,8 C 7,2 C 89 % 1001,6 hPa 0,0 l/m 0 min 2 min 76 W/m 29,0 km/h (5 Bft) 94,00 %
08.12.2018 12:00 8,7 C 7,8 C 7,2 C 88 % 1001,8 hPa 0,0 l/m 0 min 2 min 75 W/m 25,7 km/h (4 Bft) 95,74 %
08.12.2018 12:02 8,8 C 7,8 C 7,2 C 88 % 1001,6 hPa 0,0 l/m 0 min 2 min 88 W/m 29,0 km/h (5 Bft) 91,49 %
08.12.2018 12:04 8,8 C 7,8 C 7,2 C 88 % 1001,5 hPa 0,0 l/m 0 min 2 min 85 W/m 35,4 km/h (5 Bft) 97,87 %
08.12.2018 12:08 8,9 C 7,8 C 7,2 C 87 % 1001,6 hPa 0,0 l/m 0 min 4 min 87 W/m 38,6 km/h (5 Bft) 96,63 %
08.12.2018 12:10 8,9 C 7,8 C 7,2 C 87 % 1001,6 hPa 0,0 l/m 0 min 2 min 79 W/m 22,5 km/h (4 Bft) 93,88 %
08.12.2018 12:12 8,9 C 7,8 C 7,2 C 87 % 1001,6 hPa 0,0 l/m 0 min 0 min 92 W/m 19,3 km/h (3 Bft) 97,96 %
08.12.2018 12:14 8,9 C 7,8 C 7,2 C 87 % 1001,5 hPa 0,0 l/m 0 min 2 min 89 W/m 25,7 km/h (4 Bft) 95,74 %
08.12.2018 12:16 8,9 C 7,8 C 7,2 C 87 % 1001,6 hPa 0,0 l/m 0 min 2 min 78 W/m 25,7 km/h (4 Bft) 95,74 %
08.12.2018 12:18 8,9 C 7,8 C 7,2 C 87 % 1001,7 hPa 0,0 l/m 0 min 2 min 57 W/m 29,0 km/h (5 Bft) 95,24 %
08.12.2018 12:21 8,9 C 7,8 C 7,2 C 87 % 1001,6 hPa 0,0 l/m 0 min 0 min 63 W/m 29,0 km/h (5 Bft) 95,95 %
08.12.2018 12:22 9,0 C 7,8 C 7,2 C 87 % 1001,6 hPa 0,0 l/m 0 min 0 min 60 W/m 19,3 km/h (3 Bft) 81,82 %
08.12.2018 12:24 8,9 C 7,8 C 7,2 C 87 % 1001,6 hPa 0,0 l/m 0 min 0 min 74 W/m 25,7 km/h (4 Bft) 93,88 %
08.12.2018 12:26 8,9 C 7,8 C 7,2 C 87 % 1001,5 hPa 0,0 l/m 0 min 0 min 70 W/m 19,3 km/h (3 Bft) 93,88 %
08.12.2018 12:29 9,0 C 7,8 C 7,2 C 87 % 1001,6 hPa 0,0 l/m 0 min 3 min 69 W/m 22,5 km/h (4 Bft) 92,11 %
08.12.2018 12:30 9,0 C 7,8 C 7,2 C 87 % 1001,6 hPa 0,0 l/m 0 min 1 min 58 W/m 22,5 km/h (4 Bft) 100,00 %
08.12.2018 12:32 9,0 C 7,8 C 7,2 C 87 % 1001,6 hPa 0,0 l/m 0 min 2 min 49 W/m 22,5 km/h (4 Bft) 89,36 %
08.12.2018 12:34 9,0 C 7,8 C 7,2 C 87 % 1001,6 hPa 0,0 l/m 0 min 2 min 44 W/m 22,5 km/h (4 Bft) 95,12 %
08.12.2018 12:36 9,0 C 7,8 C 7,2 C 86 % 1001,6 hPa 0,0 l/m 0 min 2 min 41 W/m 12,9 km/h (3 Bft) 89,80 %
08.12.2018 12:38 9,0 C 7,2 C 7,2 C 86 % 1001,7 hPa 0,0 l/m 0 min 2 min 30 W/m 25,7 km/h (4 Bft) 91,84 %
08.12.2018 12:40 9,0 C 7,2 C 6,7 C 87 % 1001,6 hPa 0,0 l/m 0 min 2 min 32 W/m 22,5 km/h (4 Bft) 95,83 %
08.12.2018 12:42 8,9 C 7,2 C 6,7 C 87 % 1001,6 hPa 0,0 l/m 0 min 2 min 32 W/m 19,3 km/h (3 Bft) 91,49 %
08.12.2018 12:44 8,9 C 7,2 C 6,7 C 86 % 1001,7 hPa 0,0 l/m 0 min 2 min 32 W/m 25,7 km/h (4 Bft) 95,74 %
08.12.2018 12:46 8,9 C 7,8 C 7,2 C 86 % 1001,7 hPa 0,0 l/m 0 min 2 min 33 W/m 22,5 km/h (4 Bft) 92,68 %
08.12.2018 12:48 8,9 C 7,8 C 7,2 C 86 % 1001,7 hPa 0,0 l/m 0 min 2 min 39 W/m 29,0 km/h (5 Bft) 95,92 %
08.12.2018 12:50 8,9 C 7,8 C 7,2 C 86 % 1001,7 hPa 0,0 l/m 0 min 2 min 35 W/m 16,1 km/h (3 Bft) 95,92 %
08.12.2018 12:52 8,9 C 8,3 C 7,2 C 86 % 1001,7 hPa 0,0 l/m 0 min 2 min 32 W/m 25,7 km/h (4 Bft) 93,75 %
08.12.2018 12:54 8,9 C 8,3 C 7,2 C 86 % 1001,7 hPa 0,0 l/m 0 min 2 min 33 W/m 19,3 km/h (3 Bft) 93,62 %
08.12.2018 12:56 8,9 C 8,3 C 7,2 C 86 % 1001,6 hPa 0,0 l/m 0 min 2 min 32 W/m 29,0 km/h (5 Bft) 91,49 %
08.12.2018 12:58 9,0 C 8,3 C 7,2 C 85 % 1001,5 hPa 0,0 l/m 0 min 2 min 34 W/m 19,3 km/h (3 Bft) 93,18 %
08.12.2018 13:00 9,0 C 8,9 C 7,2 C 85 % 1001,6 hPa 0,0 l/m 0 min 0 min 40 W/m 38,6 km/h (5 Bft) 95,92 %
08.12.2018 13:02 9,0 C 8,9 C 7,2 C 85 % 1001,6 hPa 0,0 l/m 0 min 0 min 51 W/m 22,5 km/h (4 Bft) 91,11 %
08.12.2018 13:04 9,1 C 8,9 C 7,2 C 85 % 1001,6 hPa 0,0 l/m 0 min 0 min 49 W/m 22,5 km/h (4 Bft) 97,83 %
08.12.2018 13:06 9,1 C 8,9 C 7,2 C 85 % 1001,6 hPa 0,0 l/m 0 min 0 min 42 W/m 25,7 km/h (4 Bft) 97,83 %
08.12.2018 13:08 9,1 C 8,9 C 7,2 C 84 % 1001,6 hPa 0,0 l/m 0 min 0 min 44 W/m 22,5 km/h (4 Bft) 95,92 %
08.12.2018 13:10 9,1 C 8,9 C 7,2 C 84 % 1001,6 hPa 0,0 l/m 0 min 0 min 44 W/m 25,7 km/h (4 Bft) 97,87 %
08.12.2018 13:12 9,1 C 8,9 C 7,2 C 84 % 1001,6 hPa 0,0 l/m 0 min 0 min 48 W/m 22,5 km/h (4 Bft) 97,92 %
08.12.2018 13:14 9,2 C 8,9 C 7,2 C 84 % 1001,5 hPa 0,2 l/m 0 min 0 min 42 W/m 22,5 km/h (4 Bft) 100,00 %
08.12.2018 13:16 9,2 C 8,9 C 7,2 C 84 % 1001,5 hPa 0,0 l/m 0 min 0 min 34 W/m 16,1 km/h (3 Bft) 100,00 %
08.12.2018 13:18 9,2 C 8,9 C 7,8 C 84 % 1001,5 hPa 0,0 l/m 0 min 0 min 28 W/m 29,0 km/h (5 Bft) 100,00 %
08.12.2018 13:20 9,2 C 8,9 C 7,8 C 84 % 1001,6 hPa 0,0 l/m 0 min 0 min 28 W/m 29,0 km/h (5 Bft) 97,92 %
08.12.2018 13:22 9,2 C 8,9 C 7,8 C 84 % 1001,6 hPa 0,0 l/m 0 min 0 min 34 W/m 32,2 km/h (5 Bft) 100,00 %
08.12.2018 13:24 9,2 C 8,9 C 7,8 C 84 % 1001,6 hPa 0,0 l/m 0 min 0 min 39 W/m 22,5 km/h (4 Bft) 100,00 %
08.12.2018 13:26 9,2 C 8,9 C 7,8 C 84 % 1001,6 hPa 0,0 l/m 0 min 0 min 39 W/m 16,1 km/h (3 Bft) 100,00 %
08.12.2018 13:28 9,2 C 8,9 C 7,8 C 84 % 1001,6 hPa 0,0 l/m 0 min 0 min 36 W/m 22,5 km/h (4 Bft) 100,00 %
08.12.2018 13:30 9,2 C 8,9 C 7,8 C 84 % 1001,5 hPa 0,0 l/m 0 min 0 min 34 W/m 19,3 km/h (3 Bft) 95,92 %
08.12.2018 13:32 9,2 C 8,9 C 7,8 C 84 % 1001,6 hPa 0,0 l/m 0 min 0 min 27 W/m 32,2 km/h (5 Bft) 100,00 %
08.12.2018 13:34 9,2 C 8,3 C 7,8 C 84 % 1001,5 hPa 0,0 l/m 0 min 2 min 38 W/m 16,1 km/h (3 Bft) 97,87 %
08.12.2018 13:36 9,2 C 8,3 C 7,8 C 84 % 1001,5 hPa 0,0 l/m 0 min 2 min 43 W/m 22,5 km/h (4 Bft) 100,00 %
08.12.2018 13:38 9,2 C 8,3 C 7,8 C 84 % 1001,5 hPa 0,0 l/m 0 min 0 min 63 W/m 22,5 km/h (4 Bft) 100,00 %
08.12.2018 13:40 9,2 C 8,9 C 7,8 C 84 % 1001,4 hPa 0,0 l/m 0 min 2 min 56 W/m 22,5 km/h (4 Bft) 100,00 %
08.12.2018 13:42 9,2 C 8,9 C 7,8 C 84 % 1001,4 hPa 0,0 l/m 0 min 0 min 46 W/m 29,0 km/h (5 Bft) 100,00 %
08.12.2018 13:44 9,2 C 8,9 C 7,8 C 84 % 1001,5 hPa 0,0 l/m 0 min 0 min 44 W/m 16,1 km/h (3 Bft) 100,00 %
08.12.2018 13:46 9,2 C 8,9 C 7,8 C 84 % 1001,5 hPa 0,0 l/m 0 min 0 min 41 W/m 19,3 km/h (3 Bft) 100,00 %
08.12.2018 13:48 9,2 C 8,9 C 8,3 C 84 % 1001,6 hPa 0,0 l/m 0 min 0 min 36 W/m 25,7 km/h (4 Bft) 100,00 %
08.12.2018 13:50 9,2 C 8,9 C 8,3 C 84 % 1001,5 hPa 0,0 l/m 0 min 0 min 41 W/m 25,7 km/h (4 Bft) 100,00 %
08.12.2018 13:52 9,2 C 8,9 C 8,3 C 83 % 1001,5 hPa 0,0 l/m 0 min 0 min 47 W/m 22,5 km/h (4 Bft) 98,00 %
08.12.2018 13:54 9,3 C 8,9 C 8,3 C 83 % 1001,5 hPa 0,0 l/m 0 min 0 min 40 W/m 22,5 km/h (4 Bft) 100,00 %
08.12.2018 13:56 9,3 C 8,9 C 8,3 C 83 % 1001,5 hPa 0,0 l/m 0 min 0 min 39 W/m 19,3 km/h (3 Bft) 100,00 %
08.12.2018 13:58 9,3 C 8,9 C 8,3 C 83 % 1001,5 hPa 0,0 l/m 0 min 0 min 48 W/m 16,1 km/h (3 Bft) 97,87 %
08.12.2018 14:00 9,3 C 8,9 C 8,3 C 83 % 1001,5 hPa 0,0 l/m 0 min 0 min 42 W/m 16,1 km/h (3 Bft) 100,00 %
08.12.2018 14:02 9,3 C 8,9 C 8,3 C 83 % 1001,5 hPa 0,0 l/m 0 min 0 min 34 W/m 19,3 km/h (3 Bft) 95,35 %
08.12.2018 14:04 9,3 C 8,9 C 8,3 C 83 % 1001,5 hPa 0,0 l/m 0 min 0 min 28 W/m 22,5 km/h (4 Bft) 100,00 %
08.12.2018 14:06 9,3 C 8,9 C 8,3 C 83 % 1001,7 hPa 0,0 l/m 0 min 0 min 29 W/m 19,3 km/h (3 Bft) 100,00 %
08.12.2018 14:08 9,3 C 8,9 C 8,3 C 83 % 1001,8 hPa 0,0 l/m 0 min 0 min 19 W/m 22,5 km/h (4 Bft) 100,00 %
08.12.2018 14:10 9,3 C 8,9 C 8,3 C 83 % 1001,6 hPa 0,0 l/m 0 min 0 min 15 W/m 19,3 km/h (3 Bft) 100,00 %
08.12.2018 14:12 9,3 C 8,9 C 7,8 C 83 % 1001,7 hPa 0,0 l/m 0 min 0 min 12 W/m 19,3 km/h (3 Bft) 100,00 %
08.12.2018 14:14 9,4 C 8,3 C 7,8 C 83 % 1001,6 hPa 0,0 l/m 0 min 2 min 11 W/m 25,7 km/h (4 Bft) 100,00 %
08.12.2018 14:16 9,4 C 8,3 C 7,8 C 83 % 1001,7 hPa 0,0 l/m 0 min 2 min 11 W/m 25,7 km/h (4 Bft) 100,00 %
08.12.2018 14:18 9,3 C 7,8 C 7,2 C 83 % 1001,6 hPa 0,0 l/m 0 min 2 min 12 W/m 32,2 km/h (5 Bft) 100,00 %
08.12.2018 14:20 9,3 C 7,8 C 7,2 C 84 % 1001,6 hPa 0,0 l/m 0 min 2 min 12 W/m 19,3 km/h (3 Bft) 100,00 %
08.12.2018 14:22 9,3 C 7,8 C 7,2 C 84 % 1001,6 hPa 0,0 l/m 0 min 2 min 14 W/m 19,3 km/h (3 Bft) 100,00 %
08.12.2018 14:24 9,3 C 7,8 C 7,2 C 84 % 1001,7 hPa 0,0 l/m 0 min 2 min 14 W/m 16,1 km/h (3 Bft) 100,00 %
08.12.2018 14:26 9,3 C 7,8 C 7,2 C 84 % 1001,7 hPa 0,0 l/m 0 min 2 min 17 W/m 16,1 km/h (3 Bft) 100,00 %
08.12.2018 14:28 9,2 C 7,2 C 7,2 C 85 % 1001,6 hPa 0,0 l/m 0 min 2 min 19 W/m 16,1 km/h (3 Bft) 97,92 %
08.12.2018 14:30 9,2 C 7,2 C 7,2 C 85 % 1001,6 hPa 0,0 l/m 0 min 2 min 23 W/m 9,7 km/h (2 Bft) 100,00 %
08.12.2018 14:32 9,2 C 7,8 C 7,2 C 85 % 1001,6 hPa 0,0 l/m 0 min 2 min 23 W/m 22,5 km/h (4 Bft) 100,00 %
08.12.2018 14:34 9,2 C 7,8 C 7,2 C 85 % 1001,5 hPa 0,0 l/m 0 min 2 min 30 W/m 16,1 km/h (3 Bft) 100,00 %
08.12.2018 14:36 9,2 C 7,8 C 7,8 C 85 % 1001,5 hPa 0,0 l/m 0 min 2 min 26 W/m 29,0 km/h (5 Bft) 100,00 %
08.12.2018 14:38 9,1 C 7,8 C 7,8 C 85 % 1001,5 hPa 0,0 l/m 0 min 2 min 26 W/m 16,1 km/h (3 Bft) 100,00 %
08.12.2018 14:40 9,2 C 8,3 C 7,8 C 85 % 1001,5 hPa 0,0 l/m 0 min 2 min 20 W/m 19,3 km/h (3 Bft) 100,00 %
08.12.2018 14:42 9,1 C 8,3 C 7,8 C 85 % 1001,6 hPa 0,0 l/m 0 min 2 min 23 W/m 22,5 km/h (4 Bft) 97,96 %
08.12.2018 14:44 9,1 C 8,3 C 7,8 C 85 % 1001,6 hPa 0,0 l/m 0 min 2 min 27 W/m 29,0 km/h (5 Bft) 100,00 %
08.12.2018 14:46 9,1 C 8,3 C 7,8 C 85 % 1001,5 hPa 0,0 l/m 0 min 2 min 29 W/m 19,3 km/h (3 Bft) 97,87 %
08.12.2018 14:48 9,2 C 8,3 C 7,8 C 85 % 1001,5 hPa 0,0 l/m 0 min 2 min 26 W/m 22,5 km/h (4 Bft) 97,62 %
08.12.2018 14:50 9,2 C 8,3 C 7,8 C 86 % 1001,5 hPa 0,0 l/m 0 min 2 min 23 W/m 19,3 km/h (3 Bft) 100,00 %
08.12.2018 14:52 9,2 C 8,3 C 7,8 C 86 % 1001,5 hPa 0,0 l/m 0 min 2 min 22 W/m 22,5 km/h (4 Bft) 97,92 %
08.12.2018 14:54 9,2 C 8,9 C 7,8 C 86 % 1001,4 hPa 0,0 l/m 0 min 2 min 23 W/m 19,3 km/h (3 Bft) 97,96 %
08.12.2018 14:56 9,2 C 8,9 C 7,8 C 86 % 1001,5 hPa 0,0 l/m 0 min 2 min 19 W/m 12,9 km/h (3 Bft) 97,83 %
08.12.2018 14:58 9,2 C 8,3 C 7,8 C 86 % 1001,4 hPa 0,0 l/m 0 min 2 min 15 W/m 12,9 km/h (3 Bft) 95,74 %
08.12.2018 15:00 9,2 C 8,9 C 7,8 C 86 % 1001,4 hPa 0,0 l/m 0 min 2 min 12 W/m 22,5 km/h (4 Bft) 97,87 %
08.12.2018 15:02 9,2 C 8,9 C 7,8 C 86 % 1001,4 hPa 0,0 l/m 0 min 2 min 13 W/m 16,1 km/h (3 Bft) 97,78 %
08.12.2018 15:04 9,2 C 8,9 C 7,8 C 86 % 1001,5 hPa 0,0 l/m 0 min 0 min 12 W/m 12,9 km/h (3 Bft) 97,87 %
08.12.2018 15:06 9,2 C 8,9 C 7,8 C 85 % 1001,3 hPa 0,0 l/m 0 min 0 min 11 W/m 29,0 km/h (5 Bft) 97,96 %
08.12.2018 15:08 9,2 C 8,9 C 8,3 C 85 % 1001,4 hPa 0,0 l/m 0 min 2 min 15 W/m 19,3 km/h (3 Bft) 97,87 %
08.12.2018 15:10 9,2 C 8,9 C 7,8 C 85 % 1001,4 hPa 0,0 l/m 0 min 0 min 17 W/m 22,5 km/h (4 Bft) 97,87 %
08.12.2018 15:12 9,2 C 8,9 C 7,8 C 85 % 1001,4 hPa 0,0 l/m 0 min 2 min 15 W/m 22,5 km/h (4 Bft) 97,87 %
08.12.2018 15:14 9,2 C 8,9 C 7,8 C 85 % 1001,4 hPa 0,0 l/m 0 min 0 min 13 W/m 12,9 km/h (3 Bft) 95,74 %
08.12.2018 15:16 9,2 C 8,9 C 7,8 C 84 % 1001,4 hPa 0,0 l/m 0 min 0 min 14 W/m 19,3 km/h (3 Bft) 92,86 %
08.12.2018 15:18 9,3 C 8,9 C 8,3 C 84 % 1001,4 hPa 0,0 l/m 0 min 0 min 12 W/m 25,7 km/h (4 Bft) 93,88 %
08.12.2018 15:20 9,3 C 8,9 C 8,3 C 84 % 1001,2 hPa 0,0 l/m 0 min 0 min 10 W/m 19,3 km/h (3 Bft) 93,88 %
08.12.2018 15:22 9,3 C 8,9 C 8,3 C 83 % 1001,3 hPa 0,0 l/m 0 min 0 min 9 W/m 25,7 km/h (4 Bft) 95,74 %
08.12.2018 15:24 9,3 C 8,9 C 8,3 C 83 % 1001,4 hPa 0,0 l/m 0 min 0 min 11 W/m 25,7 km/h (4 Bft) 95,74 %
08.12.2018 15:26 9,4 C 8,9 C 8,3 C 83 % 1001,4 hPa 0,0 l/m 0 min 0 min 9 W/m 19,3 km/h (3 Bft) 93,62 %
08.12.2018 15:28 9,4 C 8,9 C 8,3 C 82 % 1001,3 hPa 0,0 l/m 0 min 0 min 6 W/m 16,1 km/h (3 Bft) 92,86 %
08.12.2018 15:30 9,4 C 8,9 C 8,3 C 82 % 1001,3 hPa 0,0 l/m 0 min 0 min 5 W/m 25,7 km/h (4 Bft) 89,80 %
08.12.2018 15:32 9,4 C 8,9 C 8,3 C 82 % 1001,3 hPa 0,0 l/m 0 min 0 min 7 W/m 19,3 km/h (3 Bft) 93,88 %
08.12.2018 15:34 9,4 C 8,9 C 8,3 C 82 % 1001,3 hPa 0,0 l/m 0 min 0 min 6 W/m 19,3 km/h (3 Bft) 93,62 %
08.12.2018 15:36 9,4 C 8,9 C 8,3 C 82 % 1001,3 hPa 0,0 l/m 0 min 0 min 5 W/m 22,5 km/h (4 Bft) 93,62 %
08.12.2018 15:38 9,4 C 8,9 C 8,3 C 82 % 1001,3 hPa 0,0 l/m 0 min 0 min 7 W/m 16,1 km/h (3 Bft) 93,62 %
08.12.2018 15:40 9,5 C 8,9 C 8,3 C 82 % 1001,3 hPa 0,0 l/m 0 min 0 min 10 W/m 16,1 km/h (3 Bft) 93,62 %
08.12.2018 15:42 9,5 C 8,9 C 8,3 C 82 % 1001,3 hPa 0,0 l/m 0 min 0 min 14 W/m 22,5 km/h (4 Bft) 92,86 %
08.12.2018 15:44 9,5 C 8,9 C 8,3 C 82 % 1001,2 hPa 0,0 l/m 0 min 0 min 15 W/m 19,3 km/h (3 Bft) 93,88 %
08.12.2018 15:46 9,5 C 8,9 C 8,3 C 82 % 1001,3 hPa 0,0 l/m 0 min 0 min 17 W/m 19,3 km/h (3 Bft) 93,88 %
08.12.2018 15:48 9,5 C 9,4 C 8,3 C 82 % 1001,3 hPa 0,0 l/m 0 min 0 min 13 W/m 19,3 km/h (3 Bft) 95,74 %
08.12.2018 15:50 9,5 C 9,4 C 8,3 C 81 % 1001,3 hPa 0,0 l/m 0 min 0 min 9 W/m 22,5 km/h (4 Bft) 93,62 %
08.12.2018 15:52 9,5 C 9,4 C 8,3 C 81 % 1001,2 hPa 0,0 l/m 0 min 0 min 6 W/m 16,1 km/h (3 Bft) 95,12 %
08.12.2018 15:54 9,6 C 8,9 C 8,3 C 81 % 1001,3 hPa 0,0 l/m 0 min 0 min 5 W/m 12,9 km/h (3 Bft) 95,92 %
08.12.2018 15:56 9,6 C 8,9 C 8,3 C 81 % 1001,2 hPa 0,0 l/m 0 min 0 min 5 W/m 25,7 km/h (4 Bft) 93,88 %
08.12.2018 15:58 9,6 C 8,9 C 8,3 C 81 % 1001,3 hPa 0,0 l/m 0 min 0 min 5 W/m 29,0 km/h (5 Bft) 97,92 %
08.12.2018 16:00 9,6 C 8,9 C 8,3 C 81 % 1001,2 hPa 0,0 l/m 0 min 0 min 6 W/m 12,9 km/h (3 Bft) 93,62 %
08.12.2018 16:02 9,6 C 8,9 C 8,3 C 81 % 1001,0 hPa 0,0 l/m 0 min 0 min 8 W/m 19,3 km/h (3 Bft) 95,74 %
08.12.2018 16:04 9,6 C 8,9 C 8,3 C 81 % 1001,2 hPa 0,0 l/m 0 min 0 min 9 W/m 12,9 km/h (3 Bft) 97,87 %
08.12.2018 16:06 9,6 C 8,9 C 8,3 C 81 % 1001,2 hPa 0,0 l/m 0 min 0 min 7 W/m 16,1 km/h (3 Bft) 97,83 %
08.12.2018 16:08 9,6 C 8,9 C 8,3 C 81 % 1001,0 hPa 0,0 l/m 0 min 0 min 7 W/m 12,9 km/h (3 Bft) 97,87 %
08.12.2018 16:10 9,6 C 9,4 C 8,3 C 81 % 1001,1 hPa 0,0 l/m 0 min 0 min 7 W/m 25,7 km/h (4 Bft) 95,74 %
08.12.2018 16:12 9,6 C 9,4 C 8,3 C 81 % 1001,0 hPa 0,0 l/m 0 min 0 min 5 W/m 19,3 km/h (3 Bft) 95,45 %
08.12.2018 16:14 9,6 C 9,4 C 8,3 C 81 % 1000,9 hPa 0,0 l/m 0 min 0 min 1 W/m 19,3 km/h (3 Bft) 97,92 %
08.12.2018 16:16 9,6 C 9,4 C 8,3 C 81 % 1001,0 hPa 0,0 l/m 0 min 0 min 0 W/m 19,3 km/h (3 Bft) 97,96 %
08.12.2018 16:18 9,7 C 9,4 C 8,3 C 81 % 1001,0 hPa 0,0 l/m 0 min 0 min 0 W/m 22,5 km/h (4 Bft) 97,83 %
08.12.2018 16:20 9,7 C 9,4 C 8,3 C 80 % 1001,0 hPa 0,0 l/m 0 min 0 min 0 W/m 12,9 km/h (3 Bft) 95,74 %
08.12.2018 16:22 9,7 C 9,4 C 8,3 C 80 % 1000,9 hPa 0,0 l/m 0 min 0 min 0 W/m 16,1 km/h (3 Bft) 97,67 %
08.12.2018 16:24 9,7 C 9,4 C 8,3 C 80 % 1000,9 hPa 0,0 l/m 0 min 0 min 0 W/m 16,1 km/h (3 Bft) 95,83 %
08.12.2018 16:26 9,7 C 9,4 C 8,3 C 80 % 1000,9 hPa 0,0 l/m 0 min 0 min 0 W/m 16,1 km/h (3 Bft) 95,92 %
08.12.2018 16:28 9,7 C 9,4 C 8,3 C 80 % 1001,0 hPa 0,0 l/m 0 min 0 min 0 W/m 12,9 km/h (3 Bft) 97,87 %
08.12.2018 16:30 9,7 C 9,4 C 8,3 C 80 % 1001,0 hPa 0,0 l/m 0 min 0 min 0 W/m 16,1 km/h (3 Bft) 97,87 %
08.12.2018 16:32 9,7 C 9,4 C 8,3 C 80 % 1001,0 hPa 0,0 l/m 0 min 0 min 0 W/m 19,3 km/h (3 Bft) 97,62 %
08.12.2018 16:34 9,7 C 9,4 C 8,3 C 80 % 1000,9 hPa 0,0 l/m 0 min 0 min 0 W/m 16,1 km/h (3 Bft) 100,00 %
08.12.2018 16:36 9,7 C 9,4 C 8,3 C 80 % 1000,8 hPa 0,0 l/m 0 min 0 min 0 W/m 16,1 km/h (3 Bft) 97,92 %
08.12.2018 16:38 9,8 C 9,4 C 8,3 C 80 % 1000,9 hPa 0,0 l/m 0 min 0 min 0 W/m 22,5 km/h (4 Bft) 100,00 %
08.12.2018 16:40 9,8 C 9,4 C 8,3 C 80 % 1000,8 hPa 0,0 l/m 0 min 0 min 0 W/m 9,7 km/h (2 Bft) 100,00 %
08.12.2018 16:42 9,8 C 9,4 C 8,3 C 80 % 1000,8 hPa 0,0 l/m 0 min 0 min 0 W/m 16,1 km/h (3 Bft) 100,00 %
08.12.2018 16:44 9,8 C 9,4 C 8,3 C 80 % 1000,8 hPa 0,0 l/m 0 min 0 min 0 W/m 19,3 km/h (3 Bft) 100,00 %
08.12.2018 16:46 9,8 C 9,4 C 8,3 C 80 % 1000,7 hPa 0,0 l/m 0 min 0 min 0 W/m 16,1 km/h (3 Bft) 97,96 %
08.12.2018 16:48 9,8 C 9,4 C 8,3 C 80 % 1000,7 hPa 0,0 l/m 0 min 0 min 0 W/m 22,5 km/h (4 Bft) 100,00 %
08.12.2018 16:50 9,8 C 9,4 C 8,3 C 80 % 1000,7 hPa 0,0 l/m 0 min 0 min 0 W/m 9,7 km/h (2 Bft) 100,00 %
08.12.2018 16:52 9,8 C 9,4 C 8,3 C 80 % 1000,7 hPa 0,0 l/m 0 min 0 min 0 W/m 12,9 km/h (3 Bft) 100,00 %
08.12.2018 16:54 9,8 C 9,4 C 8,3 C 80 % 1000,7 hPa 0,0 l/m 0 min 0 min 0 W/m 12,9 km/h (3 Bft) 100,00 %
08.12.2018 16:56 9,8 C 9,4 C 8,3 C 80 % 1000,6 hPa 0,0 l/m 0 min 0 min 0 W/m 12,9 km/h (3 Bft) 97,62 %
08.12.2018 16:58 9,8 C 9,4 C 8,3 C 80 % 1000,6 hPa 0,0 l/m 0 min 0 min 0 W/m 16,1 km/h (3 Bft) 100,00 %
08.12.2018 17:00 9,8 C 9,4 C 8,3 C 80 % 1000,6 hPa 0,0 l/m 0 min 0 min 0 W/m 19,3 km/h (3 Bft) 100,00 %
08.12.2018 17:02 9,8 C 9,4 C 8,3 C 81 % 1000,5 hPa 0,0 l/m 0 min 0 min 0 W/m 12,9 km/h (3 Bft) 100,00 %
08.12.2018 17:04 9,8 C 9,4 C 8,3 C 81 % 1000,4 hPa 0,0 l/m 0 min 0 min 0 W/m 16,1 km/h (3 Bft) 100,00 %
08.12.2018 17:06 9,8 C 9,4 C 8,3 C 81 % 1000,4 hPa 0,0 l/m 0 min 0 min 0 W/m 25,7 km/h (4 Bft) 100,00 %
08.12.2018 17:08 9,8 C 9,4 C 8,3 C 81 % 1000,3 hPa 0,0 l/m 0 min 0 min 0 W/m 16,1 km/h (3 Bft) 97,87 %
08.12.2018 17:10 9,8 C 9,4 C 8,3 C 81 % 1000,3 hPa 0,0 l/m 0 min 0 min 0 W/m 25,7 km/h (4 Bft) 100,00 %
08.12.2018 17:12 9,8 C 9,4 C 8,3 C 81 % 1000,3 hPa 0,0 l/m 0 min 0 min 0 W/m 19,3 km/h (3 Bft) 100,00 %
08.12.2018 17:14 9,8 C 9,4 C 8,3 C 81 % 1000,3 hPa 0,0 l/m 0 min 0 min 0 W/m 19,3 km/h (3 Bft) 100,00 %
08.12.2018 17:16 9,8 C 9,4 C 8,3 C 82 % 1000,3 hPa 0,0 l/m 0 min 0 min 0 W/m 22,5 km/h (4 Bft) 100,00 %
08.12.2018 17:18 9,8 C 9,4 C 8,3 C 82 % 1000,2 hPa 0,0 l/m 0 min 0 min 0 W/m 25,7 km/h (4 Bft) 100,00 %
08.12.2018 17:20 9,8 C 9,4 C 8,3 C 82 % 1000,2 hPa 0,0 l/m 0 min 0 min 0 W/m 22,5 km/h (4 Bft) 100,00 %
08.12.2018 17:22 9,8 C 8,9 C 8,3 C 82 % 1000,2 hPa 0,0 l/m 0 min 0 min 0 W/m 12,9 km/h (3 Bft) 100,00 %
08.12.2018 17:24 9,8 C 9,4 C 8,3 C 82 % 1000,2 hPa 0,0 l/m 0 min 0 min 0 W/m 32,2 km/h (5 Bft) 100,00 %
08.12.2018 17:26 9,8 C 9,4 C 8,3 C 83 % 1000,1 hPa 0,0 l/m 0 min 0 min 0 W/m 19,3 km/h (3 Bft) 95,92 %
08.12.2018 17:28 9,8 C 9,4 C 8,3 C 83 % 1000,1 hPa 0,0 l/m 0 min 2 min 0 W/m 25,7 km/h (4 Bft) 100,00 %
08.12.2018 17:30 9,8 C 9,4 C 8,3 C 83 % 1000,2 hPa 0,0 l/m 0 min 2 min 0 W/m 29,0 km/h (5 Bft) 100,00 %
08.12.2018 17:32 9,8 C 9,4 C 8,3 C 83 % 1000,1 hPa 0,0 l/m 0 min 2 min 0 W/m 12,9 km/h (3 Bft) 97,87 %
08.12.2018 17:34 9,8 C 8,9 C 8,3 C 84 % 1000,1 hPa 0,0 l/m 0 min 2 min 0 W/m 19,3 km/h (3 Bft) 100,00 %
08.12.2018 17:36 9,8 C 8,9 C 7,8 C 84 % 999,9 hPa 0,0 l/m 0 min 2 min 0 W/m 12,9 km/h (3 Bft) 100,00 %
08.12.2018 17:38 9,8 C 8,3 C 7,8 C 84 % 999,9 hPa 0,0 l/m 0 min 2 min 0 W/m 12,9 km/h (3 Bft) 100,00 %
08.12.2018 17:40 9,8 C 8,3 C 7,8 C 84 % 999,8 hPa 0,0 l/m 0 min 2 min 0 W/m 19,3 km/h (3 Bft) 100,00 %
08.12.2018 17:42 9,8 C 8,3 C 7,8 C 85 % 999,8 hPa 0,0 l/m 0 min 2 min 0 W/m 32,2 km/h (5 Bft) 95,92 %
08.12.2018 17:44 9,8 C 8,3 C 7,2 C 85 % 999,8 hPa 0,0 l/m 0 min 2 min 0 W/m 19,3 km/h (3 Bft) 95,92 %
08.12.2018 17:46 9,8 C 7,8 C 7,2 C 85 % 999,8 hPa 0,0 l/m 0 min 2 min 0 W/m 22,5 km/h (4 Bft) 95,83 %
08.12.2018 17:48 9,7 C 7,8 C 7,2 C 86 % 999,9 hPa 0,0 l/m 0 min 2 min 0 W/m 16,1 km/h (3 Bft) 89,36 %
08.12.2018 17:50 9,7 C 7,8 C 7,2 C 86 % 999,8 hPa 0,0 l/m 0 min 2 min 0 W/m 12,9 km/h (3 Bft) 95,65 %
08.12.2018 17:52 9,7 C 8,3 C 7,2 C 86 % 999,6 hPa 0,0 l/m 0 min 2 min 0 W/m 25,7 km/h (4 Bft) 97,62 %
08.12.2018 17:54 9,7 C 8,3 C 7,2 C 86 % 999,6 hPa 0,0 l/m 0 min 2 min 0 W/m 12,9 km/h (3 Bft) 93,88 %
08.12.2018 17:56 9,7 C 8,3 C 7,2 C 86 % 999,5 hPa 0,0 l/m 0 min 2 min 0 W/m 9,7 km/h (2 Bft) 97,96 %
08.12.2018 17:58 9,6 C 8,3 C 7,8 C 87 % 999,4 hPa 0,0 l/m 0 min 2 min 0 W/m 19,3 km/h (3 Bft) 97,92 %
08.12.2018 18:00 9,6 C 8,3 C 7,8 C 87 % 999,4 hPa 0,0 l/m 0 min 2 min 0 W/m 9,7 km/h (2 Bft) 97,87 %
08.12.2018 18:02 9,6 C 8,3 C 7,8 C 87 % 999,3 hPa 0,0 l/m 0 min 2 min 0 W/m 9,7 km/h (2 Bft) 93,48 %
08.12.2018 18:04 9,6 C 8,3 C 7,8 C 87 % 999,3 hPa 0,0 l/m 0 min 2 min 0 W/m 12,9 km/h (3 Bft) 93,62 %
08.12.2018 18:08 9,6 C 8,3 C 7,8 C 87 % 999,2 hPa 0,0 l/m 0 min 4 min 0 W/m 35,4 km/h (5 Bft) 95,65 %
08.12.2018 18:10 9,6 C 7,8 C 7,2 C 88 % 999,3 hPa 0,0 l/m 0 min 2 min 0 W/m 19,3 km/h (3 Bft) 93,75 %
08.12.2018 18:12 9,6 C 7,8 C 7,2 C 88 % 999,3 hPa 0,0 l/m 0 min 2 min 0 W/m 29,0 km/h (5 Bft) 93,75 %
08.12.2018 18:14 9,6 C 7,8 C 7,2 C 88 % 999,2 hPa 0,0 l/m 0 min 2 min 0 W/m 38,6 km/h (5 Bft) 95,65 %
08.12.2018 18:16 9,6 C 7,8 C 7,2 C 89 % 999,2 hPa 0,0 l/m 0 min 2 min 0 W/m 32,2 km/h (5 Bft) 95,24 %
08.12.2018 18:18 9,6 C 7,8 C 7,2 C 89 % 999,1 hPa 0,0 l/m 0 min 2 min 0 W/m 32,2 km/h (5 Bft) 95,92 %
08.12.2018 18:20 9,5 C 7,8 C 7,2 C 89 % 999,0 hPa 0,0 l/m 0 min 2 min 0 W/m 25,7 km/h (4 Bft) 95,83 %
08.12.2018 18:22 9,5 C 7,8 C 7,2 C 90 % 999,1 hPa 0,0 l/m 0 min 2 min 0 W/m 32,2 km/h (5 Bft) 93,88 %
08.12.2018 18:24 9,5 C 7,8 C 7,2 C 90 % 998,9 hPa 0,2 l/m 0 min 2 min 0 W/m 38,6 km/h (5 Bft) 93,48 %
08.12.2018 18:26 9,4 C 7,8 C 7,2 C 90 % 998,6 hPa 0,0 l/m 0 min 2 min 0 W/m 29,0 km/h (5 Bft) 95,74 %
08.12.2018 18:28 9,4 C 7,8 C 7,2 C 90 % 998,8 hPa 0,0 l/m 0 min 2 min 0 W/m 25,7 km/h (4 Bft) 95,35 %
08.12.2018 18:30 9,4 C 7,8 C 7,2 C 90 % 998,9 hPa 0,0 l/m 0 min 2 min 0 W/m 38,6 km/h (5 Bft) 97,96 %
08.12.2018 18:32 9,4 C 7,8 C 7,2 C 91 % 998,8 hPa 0,0 l/m 0 min 2 min 0 W/m 29,0 km/h (5 Bft) 97,96 %
08.12.2018 18:34 9,4 C 7,8 C 7,2 C 91 % 998,7 hPa 0,0 l/m 0 min 2 min 0 W/m 29,0 km/h (5 Bft) 97,87 %
08.12.2018 18:36 9,4 C 7,8 C 7,2 C 91 % 998,7 hPa 0,0 l/m 0 min 2 min 0 W/m 25,7 km/h (4 Bft) 97,83 %
08.12.2018 18:38 9,3 C 7,8 C 7,2 C 91 % 998,6 hPa 0,0 l/m 0 min 2 min 0 W/m 32,2 km/h (5 Bft) 93,62 %
08.12.2018 18:40 9,3 C 7,8 C 7,2 C 91 % 998,5 hPa 0,0 l/m 0 min 2 min 0 W/m 25,7 km/h (4 Bft) 97,62 %
08.12.2018 18:42 9,3 C 7,8 C 7,2 C 92 % 998,5 hPa 0,0 l/m 0 min 2 min 0 W/m 25,7 km/h (4 Bft) 98,00 %
08.12.2018 18:44 9,2 C 7,8 C 7,2 C 92 % 998,4 hPa 0,0 l/m 0 min 2 min 0 W/m 38,6 km/h (5 Bft) 97,92 %
08.12.2018 18:46 9,2 C 7,8 C 7,2 C 92 % 998,3 hPa 0,0 l/m 0 min 2 min 0 W/m 29,0 km/h (5 Bft) 97,92 %
08.12.2018 18:48 9,2 C 7,8 C 7,2 C 92 % 998,3 hPa 0,0 l/m 0 min 2 min 0 W/m 32,2 km/h (5 Bft) 97,83 %
08.12.2018 18:50 9,2 C 7,8 C 7,2 C 92 % 998,3 hPa 0,0 l/m 0 min 2 min 0 W/m 25,7 km/h (4 Bft) 100,00 %
08.12.2018 18:52 9,1 C 7,8 C 7,2 C 93 % 998,2 hPa 0,0 l/m 0 min 2 min 0 W/m 29,0 km/h (5 Bft) 97,67 %
08.12.2018 18:54 9,1 C 7,8 C 7,2 C 93 % 998,1 hPa 0,2 l/m 0 min 2 min 0 W/m 32,2 km/h (5 Bft) 100,00 %
08.12.2018 18:56 9,1 C 7,8 C 7,2 C 93 % 998,1 hPa 0,0 l/m 0 min 0 min 0 W/m 41,8 km/h (6 Bft) 100,00 %
08.12.2018 18:58 9,1 C 7,8 C 7,2 C 93 % 998,1 hPa 0,0 l/m 0 min 0 min 0 W/m 32,2 km/h (5 Bft) 100,00 %
08.12.2018 19:00 9,0 C 7,8 C 7,2 C 93 % 997,9 hPa 0,0 l/m 0 min 0 min 0 W/m 35,4 km/h (5 Bft) 95,65 %
08.12.2018 19:02 9,0 C 7,8 C 7,2 C 93 % 998,0 hPa 0,0 l/m 0 min 0 min 0 W/m 35,4 km/h (5 Bft) 100,00 %
08.12.2018 19:04 9,0 C 7,8 C 7,2 C 94 % 997,8 hPa 0,0 l/m 0 min 0 min 0 W/m 41,8 km/h (6 Bft) 100,00 %
08.12.2018 19:06 9,0 C 7,8 C 7,2 C 94 % 997,8 hPa 0,0 l/m 0 min 2 min 0 W/m 29,0 km/h (5 Bft) 97,73 %
08.12.2018 19:08 9,0 C 7,8 C 7,2 C 94 % 997,8 hPa 0,0 l/m 0 min 2 min 0 W/m 22,5 km/h (4 Bft) 97,92 %
08.12.2018 19:10 9,0 C 7,8 C 7,2 C 94 % 997,7 hPa 0,0 l/m 0 min 2 min 0 W/m 38,6 km/h (5 Bft) 97,96 %
08.12.2018 19:12 8,9 C 7,8 C 7,2 C 94 % 997,5 hPa 0,0 l/m 0 min 2 min 0 W/m 32,2 km/h (5 Bft) 95,65 %
08.12.2018 19:14 8,9 C 7,8 C 7,2 C 94 % 997,5 hPa 0,0 l/m 0 min 2 min 0 W/m 19,3 km/h (3 Bft) 97,87 %
08.12.2018 19:16 8,9 C 7,8 C 7,2 C 94 % 997,3 hPa 0,0 l/m 0 min 2 min 0 W/m 32,2 km/h (5 Bft) 97,62 %
08.12.2018 19:18 8,9 C 7,8 C 7,2 C 94 % 997,3 hPa 0,0 l/m 0 min 2 min 0 W/m 29,0 km/h (5 Bft) 97,96 %
08.12.2018 19:20 8,9 C 7,8 C 7,2 C 94 % 997,3 hPa 0,0 l/m 0 min 2 min 0 W/m 35,4 km/h (5 Bft) 97,92 %
08.12.2018 19:22 8,9 C 7,8 C 7,2 C 94 % 997,4 hPa 0,0 l/m 0 min 2 min 0 W/m 48,3 km/h (6 Bft) 95,83 %
08.12.2018 19:24 9,0 C 7,8 C 7,2 C 94 % 997,4 hPa 0,0 l/m 0 min 2 min 0 W/m 41,8 km/h (6 Bft) 97,87 %
08.12.2018 19:26 9,0 C 7,8 C 7,2 C 94 % 997,3 hPa 0,0 l/m 0 min 2 min 0 W/m 29,0 km/h (5 Bft) 95,74 %
08.12.2018 19:28 9,0 C 7,8 C 7,2 C 94 % 997,4 hPa 0,2 l/m 0 min 2 min 0 W/m 35,4 km/h (5 Bft) 97,62 %
08.12.2018 19:30 9,0 C 7,8 C 7,2 C 94 % 997,2 hPa 0,0 l/m 0 min 2 min 0 W/m 25,7 km/h (4 Bft) 93,88 %
08.12.2018 19:32 9,0 C 7,8 C 7,2 C 94 % 997,0 hPa 0,2 l/m 0 min 2 min 0 W/m 35,4 km/h (5 Bft) 97,96 %
08.12.2018 19:34 9,0 C 7,8 C 7,2 C 94 % 997,0 hPa 0,0 l/m 0 min 0 min 0 W/m 32,2 km/h (5 Bft) 97,87 %
08.12.2018 19:36 8,9 C 7,8 C 7,2 C 94 % 996,9 hPa 0,0 l/m 0 min 0 min 0 W/m 41,8 km/h (6 Bft) 97,87 %
08.12.2018 19:38 9,0 C 7,8 C 7,2 C 94 % 996,8 hPa 0,0 l/m 0 min 2 min 0 W/m 51,5 km/h (7 Bft) 97,87 %
08.12.2018 19:40 9,0 C 7,8 C 7,2 C 95 % 996,8 hPa 0,0 l/m 0 min 2 min 0 W/m 41,8 km/h (6 Bft) 95,35 %
08.12.2018 19:42 9,0 C 7,8 C 7,2 C 95 % 996,8 hPa 0,0 l/m 0 min 2 min 0 W/m 45,1 km/h (6 Bft) 97,92 %
08.12.2018 19:44 9,0 C 7,8 C 7,2 C 95 % 996,7 hPa 0,0 l/m 0 min 2 min 0 W/m 35,4 km/h (5 Bft) 97,96 %
08.12.2018 19:46 9,0 C 7,8 C 7,2 C 95 % 996,7 hPa 0,2 l/m 0 min 2 min 0 W/m 25,7 km/h (4 Bft) 97,87 %
08.12.2018 19:48 9,0 C 7,8 C 7,2 C 95 % 996,7 hPa 0,0 l/m 0 min 2 min 0 W/m 29,0 km/h (5 Bft) 95,74 %
08.12.2018 19:50 9,0 C 7,8 C 7,2 C 95 % 996,5 hPa 0,0 l/m 0 min 2 min 0 W/m 22,5 km/h (4 Bft) 97,87 %
08.12.2018 19:52 9,0 C 7,8 C 7,2 C 95 % 996,4 hPa 0,2 l/m 0 min 2 min 0 W/m 45,1 km/h (6 Bft) 97,67 %
08.12.2018 19:54 9,0 C 7,8 C 7,2 C 95 % 996,3 hPa 0,0 l/m 0 min 2 min 0 W/m 35,4 km/h (5 Bft) 100,00 %
08.12.2018 19:56 9,0 C 7,8 C 7,2 C 95 % 996,4 hPa 0,0 l/m 0 min 2 min 0 W/m 25,7 km/h (4 Bft) 97,96 %
08.12.2018 19:58 9,0 C 7,8 C 7,2 C 95 % 996,2 hPa 0,0 l/m 0 min 2 min 0 W/m 32,2 km/h (5 Bft) 95,83 %
08.12.2018 20:00 9,0 C 7,8 C 7,2 C 95 % 996,2 hPa 0,2 l/m 0 min 2 min 0 W/m 32,2 km/h (5 Bft) 97,83 %
08.12.2018 20:02 9,0 C 7,8 C 7,2 C 95 % 996,1 hPa 0,2 l/m 0 min 2 min 0 W/m 35,4 km/h (5 Bft) 97,87 %
08.12.2018 20:04 9,0 C 7,8 C 7,2 C 95 % 996,0 hPa 0,2 l/m 0 min 2 min 0 W/m 41,8 km/h (6 Bft) 97,87 %
08.12.2018 20:06 9,0 C 7,8 C 7,2 C 95 % 995,9 hPa 0,0 l/m 0 min 2 min 0 W/m 29,0 km/h (5 Bft) 97,87 %
08.12.2018 20:08 9,0 C 7,8 C 7,2 C 95 % 995,7 hPa 0,0 l/m 0 min 2 min 0 W/m 35,4 km/h (5 Bft) 95,24 %
08.12.2018 20:10 9,1 C 7,8 C 7,2 C 95 % 995,7 hPa 0,0 l/m 0 min 2 min 0 W/m 32,2 km/h (5 Bft) 95,92 %
08.12.2018 20:12 9,0 C 7,8 C 7,2 C 95 % 995,8 hPa 0,0 l/m 0 min 2 min 0 W/m 35,4 km/h (5 Bft) 97,96 %
08.12.2018 20:14 9,0 C 7,8 C 7,2 C 95 % 995,6 hPa 0,0 l/m 0 min 2 min 0 W/m 32,2 km/h (5 Bft) 100,00 %
08.12.2018 20:16 9,0 C 7,8 C 7,2 C 95 % 995,6 hPa 0,0 l/m 0 min 2 min 0 W/m 35,4 km/h (5 Bft) 100,00 %
08.12.2018 20:18 9,0 C 7,8 C 7,2 C 95 % 995,5 hPa 0,0 l/m 0 min 2 min 0 W/m 25,7 km/h (4 Bft) 97,56 %
08.12.2018 20:20 9,0 C 7,8 C 7,2 C 95 % 995,5 hPa 0,0 l/m 0 min 2 min 0 W/m 41,8 km/h (6 Bft) 95,92 %
08.12.2018 20:22 9,0 C 7,8 C 7,2 C 95 % 995,4 hPa 0,0 l/m 0 min 2 min 0 W/m 51,5 km/h (7 Bft) 100,00 %
08.12.2018 20:24 9,0 C 7,8 C 7,2 C 95 % 995,4 hPa 0,2 l/m 0 min 2 min 0 W/m 32,2 km/h (5 Bft) 100,00 %
08.12.2018 20:26 9,1 C 7,8 C 7,2 C 96 % 995,3 hPa 0,0 l/m 0 min 2 min 0 W/m 38,6 km/h (5 Bft) 95,74 %
08.12.2018 20:28 9,1 C 7,8 C 7,2 C 96 % 995,2 hPa 0,0 l/m 0 min 2 min 0 W/m 32,2 km/h (5 Bft) 95,74 %
08.12.2018 20:30 9,1 C 7,8 C 7,2 C 96 % 994,9 hPa 0,0 l/m 0 min 2 min 0 W/m 32,2 km/h (5 Bft) 97,56 %
08.12.2018 20:32 9,1 C 7,8 C 7,2 C 95 % 994,9 hPa 0,0 l/m 0 min 2 min 0 W/m 32,2 km/h (5 Bft) 98,00 %
08.12.2018 20:34 9,1 C 7,8 C 7,2 C 95 % 994,8 hPa 0,0 l/m 0 min 2 min 0 W/m 41,8 km/h (6 Bft) 97,96 %
08.12.2018 20:36 9,1 C 7,8 C 7,2 C 96 % 994,8 hPa 0,0 l/m 0 min 2 min 0 W/m 29,0 km/h (5 Bft) 97,87 %
08.12.2018 20:38 9,1 C 7,8 C 7,2 C 96 % 994,7 hPa 0,0 l/m 0 min 2 min 0 W/m 25,7 km/h (4 Bft) 97,87 %
08.12.2018 20:40 9,1 C 7,8 C 7,2 C 96 % 994,7 hPa 0,0 l/m 0 min 2 min 0 W/m 32,2 km/h (5 Bft) 97,87 %
08.12.2018 20:42 9,1 C 7,8 C 7,2 C 96 % 994,6 hPa 0,0 l/m 0 min 2 min 0 W/m 22,5 km/h (4 Bft) 97,62 %
08.12.2018 20:44 9,1 C 7,8 C 7,8 C 96 % 994,5 hPa 0,0 l/m 0 min 2 min 0 W/m 29,0 km/h (5 Bft) 97,96 %
08.12.2018 20:46 9,2 C 7,8 C 7,8 C 96 % 994,4 hPa 0,0 l/m 0 min 2 min 0 W/m 29,0 km/h (5 Bft) 97,96 %
08.12.2018 20:48 9,2 C 8,3 C 7,8 C 96 % 994,4 hPa 0,0 l/m 0 min 2 min 0 W/m 48,3 km/h (6 Bft) 97,87 %
08.12.2018 20:50 9,2 C 8,3 C 7,8 C 96 % 994,4 hPa 0,0 l/m 0 min 2 min 0 W/m 41,8 km/h (6 Bft) 95,74 %
08.12.2018 20:52 9,2 C 8,3 C 7,8 C 96 % 994,4 hPa 0,2 l/m 0 min 2 min 0 W/m 45,1 km/h (6 Bft) 95,24 %
08.12.2018 20:54 9,2 C 8,3 C 7,8 C 96 % 994,4 hPa 0,2 l/m 0 min 2 min 0 W/m 38,6 km/h (5 Bft) 95,83 %
08.12.2018 20:56 9,3 C 8,3 C 7,8 C 96 % 994,2 hPa 0,0 l/m 0 min 2 min 0 W/m 48,3 km/h (6 Bft) 95,92 %
08.12.2018 20:58 9,3 C 8,3 C 7,8 C 96 % 994,3 hPa 0,2 l/m 0 min 2 min 0 W/m 45,1 km/h (6 Bft) 89,58 %
08.12.2018 21:00 9,3 C 8,3 C 7,8 C 96 % 994,0 hPa 0,0 l/m 0 min 2 min 0 W/m 22,5 km/h (4 Bft) 95,74 %
08.12.2018 21:02 9,3 C 8,3 C 7,8 C 96 % 994,1 hPa 0,2 l/m 0 min 2 min 0 W/m 38,6 km/h (5 Bft) 95,74 %
08.12.2018 21:04 9,3 C 8,3 C 7,8 C 96 % 994,0 hPa 0,2 l/m 0 min 2 min 0 W/m 35,4 km/h (5 Bft) 95,74 %
08.12.2018 21:06 9,3 C 8,3 C 7,8 C 96 % 994,0 hPa 0,0 l/m 0 min 2 min 0 W/m 38,6 km/h (5 Bft) 92,86 %
08.12.2018 21:08 9,3 C 8,3 C 7,8 C 96 % 993,9 hPa 0,2 l/m 0 min 2 min 0 W/m 48,3 km/h (6 Bft) 95,92 %
08.12.2018 21:10 9,3 C 8,3 C 7,8 C 96 % 993,9 hPa 0,0 l/m 0 min 2 min 0 W/m 41,8 km/h (6 Bft) 95,92 %
08.12.2018 21:12 9,3 C 8,3 C 7,8 C 96 % 993,8 hPa 0,0 l/m 0 min 2 min 0 W/m 35,4 km/h (5 Bft) 95,74 %
08.12.2018 21:14 9,3 C 8,3 C 7,8 C 96 % 993,7 hPa 0,0 l/m 0 min 2 min 0 W/m 45,1 km/h (6 Bft) 93,62 %
08.12.2018 21:16 9,4 C 8,3 C 7,8 C 96 % 993,6 hPa 0,0 l/m 0 min 2 min 0 W/m 45,1 km/h (6 Bft) 97,62 %
08.12.2018 21:18 9,4 C 8,3 C 7,8 C 96 % 993,5 hPa 0,0 l/m 0 min 2 min 0 W/m 41,8 km/h (6 Bft) 97,92 %
08.12.2018 21:20 9,4 C 8,3 C 7,8 C 96 % 993,4 hPa 0,2 l/m 0 min 2 min 0 W/m 38,6 km/h (5 Bft) 97,96 %
08.12.2018 21:22 9,4 C 8,3 C 7,8 C 96 % 993,4 hPa 0,2 l/m 0 min 2 min 0 W/m 48,3 km/h (6 Bft) 97,92 %
08.12.2018 21:24 9,4 C 8,3 C 7,8 C 96 % 993,3 hPa 0,2 l/m 0 min 2 min 0 W/m 35,4 km/h (5 Bft) 97,87 %
08.12.2018 21:26 9,4 C 8,3 C 7,8 C 96 % 993,2 hPa 0,0 l/m 0 min 2 min 0 W/m 35,4 km/h (5 Bft) 97,87 %
08.12.2018 21:28 9,4 C 8,3 C 7,8 C 96 % 993,2 hPa 0,0 l/m 0 min 2 min 0 W/m 45,1 km/h (6 Bft) 97,62 %
08.12.2018 21:30 9,4 C 8,3 C 7,8 C 96 % 993,3 hPa 0,0 l/m 0 min 2 min 0 W/m 38,6 km/h (5 Bft) 97,96 %
08.12.2018 21:32 9,4 C 8,3 C 7,8 C 96 % 993,1 hPa 0,0 l/m 0 min 0 min 0 W/m 32,2 km/h (5 Bft) 95,92 %
08.12.2018 21:34 9,4 C 8,3 C 7,8 C 96 % 993,1 hPa 0,0 l/m 0 min 2 min 0 W/m 35,4 km/h (5 Bft) 97,87 %
08.12.2018 21:36 9,5 C 8,3 C 7,8 C 96 % 993,1 hPa 0,0 l/m 0 min 2 min 0 W/m 38,6 km/h (5 Bft) 100,00 %
08.12.2018 21:38 9,5 C 8,3 C 7,8 C 96 % 993,1 hPa 0,0 l/m 0 min 2 min 0 W/m 41,8 km/h (6 Bft) 100,00 %
08.12.2018 21:40 9,5 C 8,3 C 7,8 C 96 % 992,7 hPa 0,0 l/m 0 min 2 min 0 W/m 45,1 km/h (6 Bft) 100,00 %
08.12.2018 21:42 9,5 C 8,3 C 7,8 C 96 % 992,8 hPa 0,0 l/m 0 min 2 min 0 W/m 32,2 km/h (5 Bft) 98,00 %
08.12.2018 21:44 9,5 C 8,3 C 7,8 C 96 % 993,0 hPa 0,0 l/m 0 min 0 min 0 W/m 32,2 km/h (5 Bft) 97,87 %
08.12.2018 21:46 9,5 C 8,3 C 7,8 C 96 % 993,0 hPa 0,0 l/m 0 min 2 min 0 W/m 29,0 km/h (5 Bft) 100,00 %
08.12.2018 21:48 9,6 C 8,3 C 7,8 C 96 % 993,2 hPa 0,0 l/m 0 min 2 min 0 W/m 25,7 km/h (4 Bft) 100,00 %
08.12.2018 21:50 9,6 C 8,3 C 7,8 C 96 % 993,3 hPa 0,0 l/m 0 min 2 min 0 W/m 41,8 km/h (6 Bft) 97,67 %
08.12.2018 21:52 9,6 C 8,3 C 7,8 C 96 % 993,2 hPa 0,0 l/m 0 min 2 min 0 W/m 22,5 km/h (4 Bft) 100,00 %
08.12.2018 21:54 9,6 C 8,3 C 7,8 C 96 % 993,0 hPa 0,2 l/m 0 min 2 min 0 W/m 29,0 km/h (5 Bft) 100,00 %
08.12.2018 21:56 9,6 C 8,3 C 7,8 C 96 % 992,9 hPa 0,0 l/m 0 min 2 min 0 W/m 6,4 km/h (2 Bft) 100,00 %
08.12.2018 21:58 9,6 C 8,3 C 7,8 C 96 % 993,1 hPa 0,2 l/m 0 min 2 min 0 W/m 32,2 km/h (5 Bft) 100,00 %
08.12.2018 22:00 9,6 C 8,3 C 7,8 C 96 % 993,2 hPa 0,0 l/m 0 min 2 min 0 W/m 12,9 km/h (3 Bft) 100,00 %
08.12.2018 22:02 9,6 C 8,3 C 7,8 C 96 % 993,1 hPa 0,2 l/m 0 min 2 min 0 W/m 12,9 km/h (3 Bft) 97,67 %
08.12.2018 22:04 9,5 C 8,3 C 7,8 C 96 % 993,0 hPa 0,0 l/m 0 min 2 min 0 W/m 9,7 km/h (2 Bft) 100,00 %
08.12.2018 22:06 9,5 C 8,3 C 7,8 C 96 % 992,9 hPa 0,0 l/m 0 min 0 min 0 W/m 19,3 km/h (3 Bft) 100,00 %
08.12.2018 22:08 9,5 C 8,3 C 7,8 C 96 % 992,9 hPa 0,0 l/m 0 min 0 min 0 W/m 16,1 km/h (3 Bft) 100,00 %
08.12.2018 22:10 9,5 C 8,3 C 7,8 C 96 % 992,8 hPa 0,0 l/m 0 min 0 min 0 W/m 22,5 km/h (4 Bft) 100,00 %
08.12.2018 22:12 9,5 C 8,3 C 7,8 C 96 % 992,7 hPa 0,0 l/m 0 min 2 min 0 W/m 22,5 km/h (4 Bft) 95,74 %
08.12.2018 22:14 9,6 C 8,3 C 7,8 C 96 % 992,7 hPa 0,0 l/m 0 min 2 min 0 W/m 22,5 km/h (4 Bft) 100,00 %
08.12.2018 22:16 9,6 C 8,3 C 7,8 C 96 % 992,7 hPa 0,0 l/m 0 min 2 min 0 W/m 22,5 km/h (4 Bft) 100,00 %
08.12.2018 22:18 9,6 C 8,3 C 7,8 C 96 % 992,7 hPa 0,0 l/m 0 min 2 min 0 W/m 19,3 km/h (3 Bft) 100,00 %
08.12.2018 22:20 9,6 C 8,3 C 7,8 C 96 % 992,7 hPa 0,0 l/m 0 min 2 min 0 W/m 32,2 km/h (5 Bft) 100,00 %
08.12.2018 22:22 9,6 C 8,3 C 7,8 C 96 % 992,7 hPa 0,0 l/m 0 min 2 min 0 W/m 16,1 km/h (3 Bft) 100,00 %
08.12.2018 22:24 9,6 C 8,3 C 7,8 C 96 % 992,8 hPa 0,0 l/m 0 min 2 min 0 W/m 25,7 km/h (4 Bft) 97,96 %
08.12.2018 22:26 9,7 C 8,9 C 8,3 C 96 % 992,8 hPa 0,0 l/m 0 min 2 min 0 W/m 25,7 km/h (4 Bft) 97,92 %
08.12.2018 22:28 9,7 C 8,9 C 8,3 C 96 % 992,7 hPa 0,0 l/m 0 min 2 min 0 W/m 16,1 km/h (3 Bft) 100,00 %
08.12.2018 22:30 9,7 C 8,9 C 8,3 C 96 % 992,6 hPa 0,0 l/m 0 min 2 min 0 W/m 22,5 km/h (4 Bft) 97,83 %
08.12.2018 22:32 9,7 C 8,9 C 8,3 C 96 % 992,8 hPa 0,0 l/m 0 min 2 min 0 W/m 25,7 km/h (4 Bft) 100,00 %
08.12.2018 22:34 9,7 C 8,9 C 8,3 C 96 % 992,8 hPa 0,0 l/m 0 min 2 min 0 W/m 22,5 km/h (4 Bft) 100,00 %
08.12.2018 22:36 9,8 C 8,9 C 8,3 C 96 % 992,7 hPa 0,0 l/m 0 min 0 min 0 W/m 25,7 km/h (4 Bft) 100,00 %
08.12.2018 22:38 9,8 C 8,9 C 8,3 C 96 % 992,8 hPa 0,0 l/m 0 min 0 min 0 W/m 22,5 km/h (4 Bft) 100,00 %
08.12.2018 22:40 9,8 C 8,9 C 8,3 C 96 % 992,8 hPa 0,0 l/m 0 min 0 min 0 W/m 25,7 km/h (4 Bft) 100,00 %
08.12.2018 22:42 9,8 C 8,9 C 8,3 C 96 % 992,8 hPa 0,0 l/m 0 min 0 min 0 W/m 38,6 km/h (5 Bft) 100,00 %
08.12.2018 22:44 9,8 C 8,9 C 8,3 C 96 % 992,6 hPa 0,0 l/m 0 min 0 min 0 W/m 22,5 km/h (4 Bft) 95,24 %
08.12.2018 22:46 9,8 C 8,9 C 8,3 C 96 % 992,6 hPa 0,0 l/m 0 min 0 min 0 W/m 22,5 km/h (4 Bft) 97,96 %
08.12.2018 22:48 9,9 C 8,9 C 8,3 C 96 % 992,5 hPa 0,0 l/m 0 min 0 min 0 W/m 16,1 km/h (3 Bft) 97,96 %
08.12.2018 22:50 9,9 C 8,9 C 8,3 C 96 % 992,4 hPa 0,0 l/m 0 min 0 min 0 W/m 9,7 km/h (2 Bft) 95,83 %
08.12.2018 22:52 9,9 C 8,9 C 8,3 C 96 % 992,3 hPa 0,0 l/m 0 min 0 min 0 W/m 22,5 km/h (4 Bft) 97,87 %
08.12.2018 22:54 9,9 C 8,9 C 8,3 C 96 % 992,4 hPa 0,0 l/m 0 min 2 min 0 W/m 25,7 km/h (4 Bft) 95,65 %
08.12.2018 22:56 9,9 C 8,9 C 8,3 C 96 % 992,4 hPa 0,6 l/m 0 min 2 min 0 W/m 19,3 km/h (3 Bft) 100,00 %
08.12.2018 22:58 9,9 C 8,3 C 8,3 C 96 % 992,5 hPa 0,0 l/m 0 min 2 min 0 W/m 22,5 km/h (4 Bft) 96,00 %
08.12.2018 23:00 9,9 C 8,9 C 8,3 C 96 % 992,6 hPa 0,0 l/m 0 min 2 min 0 W/m 29,0 km/h (5 Bft) 100,00 %
08.12.2018 23:02 9,9 C 8,9 C 8,3 C 96 % 992,7 hPa 0,0 l/m 0 min 2 min 0 W/m 29,0 km/h (5 Bft) 95,92 %
08.12.2018 23:04 9,9 C 8,9 C 8,3 C 96 % 992,7 hPa 0,0 l/m 0 min 2 min 0 W/m 12,9 km/h (3 Bft) 95,74 %
08.12.2018 23:06 9,9 C 8,9 C 8,3 C 96 % 992,7 hPa 0,0 l/m 0 min 2 min 0 W/m 22,5 km/h (4 Bft) 95,65 %
08.12.2018 23:08 9,9 C 8,9 C 7,8 C 96 % 992,7 hPa 0,0 l/m 0 min 2 min 0 W/m 16,1 km/h (3 Bft) 95,24 %
08.12.2018 23:10 9,9 C 8,9 C 7,8 C 96 % 992,7 hPa 0,0 l/m 0 min 2 min 0 W/m 22,5 km/h (4 Bft) 97,87 %
08.12.2018 23:12 9,9 C 8,9 C 7,8 C 96 % 992,5 hPa 0,0 l/m 0 min 2 min 0 W/m 16,1 km/h (3 Bft) 98,00 %
08.12.2018 23:14 9,9 C 8,9 C 7,8 C 96 % 992,5 hPa 0,0 l/m 0 min 2 min 0 W/m 16,1 km/h (3 Bft) 93,75 %
08.12.2018 23:16 9,9 C 8,9 C 8,3 C 96 % 992,6 hPa 0,0 l/m 0 min 2 min 0 W/m 29,0 km/h (5 Bft) 95,74 %
08.12.2018 23:18 9,9 C 8,9 C 8,3 C 95 % 992,6 hPa 0,0 l/m 0 min 2 min 0 W/m 35,4 km/h (5 Bft) 93,62 %
08.12.2018 23:20 9,9 C 8,9 C 8,3 C 95 % 992,6 hPa 0,0 l/m 0 min 2 min 0 W/m 25,7 km/h (4 Bft) 95,74 %
08.12.2018 23:22 9,9 C 8,9 C 7,8 C 95 % 992,7 hPa 0,0 l/m 0 min 2 min 0 W/m 22,5 km/h (4 Bft) 90,91 %
08.12.2018 23:24 9,9 C 8,9 C 8,3 C 95 % 992,5 hPa 0,0 l/m 0 min 2 min 0 W/m 32,2 km/h (5 Bft) 95,83 %
08.12.2018 23:26 9,9 C 8,9 C 7,8 C 95 % 992,5 hPa 0,0 l/m 0 min 2 min 0 W/m 22,5 km/h (4 Bft) 95,92 %
08.12.2018 23:28 9,9 C 8,9 C 7,8 C 95 % 992,6 hPa 0,0 l/m 0 min 2 min 0 W/m 25,7 km/h (4 Bft) 97,87 %
08.12.2018 23:30 9,9 C 8,9 C 7,8 C 95 % 992,4 hPa 0,0 l/m 0 min 2 min 0 W/m 25,7 km/h (4 Bft) 95,65 %
08.12.2018 23:32 9,9 C 8,9 C 7,8 C 95 % 992,4 hPa 0,0 l/m 0 min 2 min 0 W/m 25,7 km/h (4 Bft) 95,35 %
08.12.2018 23:34 9,9 C 8,9 C 8,3 C 94 % 992,5 hPa 0,0 l/m 0 min 2 min 0 W/m 25,7 km/h (4 Bft) 91,49 %
08.12.2018 23:36 9,9 C 8,9 C 8,3 C 94 % 992,3 hPa 0,0 l/m 0 min 2 min 0 W/m 25,7 km/h (4 Bft) 89,36 %
08.12.2018 23:38 9,9 C 8,9 C 8,3 C 94 % 992,4 hPa 0,0 l/m 0 min 2 min 0 W/m 25,7 km/h (4 Bft) 93,48 %
08.12.2018 23:40 9,9 C 8,9 C 7,8 C 94 % 992,4 hPa 0,0 l/m 0 min 2 min 0 W/m 32,2 km/h (5 Bft) 93,62 %
08.12.2018 23:42 9,9 C 8,9 C 7,8 C 94 % 992,3 hPa 0,0 l/m 0 min 2 min 0 W/m 22,5 km/h (4 Bft) 93,62 %
08.12.2018 23:44 9,9 C 8,9 C 7,8 C 94 % 992,4 hPa 0,0 l/m 0 min 2 min 0 W/m 32,2 km/h (5 Bft) 93,62 %
08.12.2018 23:46 9,9 C 8,9 C 7,8 C 93 % 992,2 hPa 0,0 l/m 0 min 2 min 0 W/m 22,5 km/h (4 Bft) 93,62 %
08.12.2018 23:48 9,9 C 8,3 C 7,8 C 93 % 992,2 hPa 0,0 l/m 0 min 2 min 0 W/m 22,5 km/h (4 Bft) 95,65 %
08.12.2018 23:50 9,9 C 8,9 C 7,8 C 93 % 992,4 hPa 0,0 l/m 0 min 2 min 0 W/m 25,7 km/h (4 Bft) 95,74 %
08.12.2018 23:52 9,9 C 8,3 C 7,8 C 93 % 992,3 hPa 0,0 l/m 0 min 2 min 0 W/m 22,5 km/h (4 Bft) 91,49 %
08.12.2018 23:54 9,9 C 8,3 C 7,8 C 92 % 992,4 hPa 0,0 l/m 0 min 2 min 0 W/m 29,0 km/h (5 Bft) 93,62 %
08.12.2018 23:56 9,9 C 8,3 C 8,3 C 92 % 992,3 hPa 0,0 l/m 0 min 2 min 0 W/m 29,0 km/h (5 Bft) 95,74 %
08.12.2018 23:58 9,9 C 8,3 C 7,8 C 92 % 992,2 hPa 0,0 l/m 0 min 2 min 0 W/m 16,1 km/h (3 Bft) 95,74 %
_ Min-Zeit 00:46 00:00 00:00 16:20 23:46 - - - - 21:56 12:22
Minimum _ 5,9 C 5,0 C 4,4 C 80 % 992,2 hPa - - - - 6,4 km/h (2 Bft) 81,82 %
_ Max-Zeit 22:48 15:48 13:48 20:26 02:40 22:56 11:44 12:08 11:44 06:52 00:08
Maximum _ 9,9 C 9,4 C 8,3 C 96 % 1004,2 hPa 0,6 l/m 2 min 4 min 165 W/m 57,9 km/h
S-SO (7 Bft)
100,00 %
Durchschnitt _ 8,2 C 7,3 C 6,5 C 89 % 1000,3 hPa #6,0 l/m #2 min. #12:12 h 31 W/m 26,4 km/h (4 Bft) 97,29 %
© 2018 W. Hausmann